Observation data for Wall on 12/13/2019      Previous  Date       Current Mesonet Observations  Soil Data  Daily Summary Page  Observations in Plain Language
KWA1 130600Z 25008KT 09/05 A3003 RMK A01 T00890054  RH  079%=      5-min Rain = 0
KWA1 130601Z 25008KT 09/05 A3003 RMK A01 T00880053  RH  079%=      5-min Rain = 0
KWA1 130602Z 25008KT 09/05 A3003 RMK A01 T00890054  RH  079%=      5-min Rain = 0
KWA1 130603Z 25009KT 09/05 A3003 RMK A01 T00890054  RH  079%=      5-min Rain = 0
KWA1 130604Z 25009KT 09/05 A3003 RMK A01 T00890054  RH  079%=      5-min Rain = 0
KWA1 130605Z 25009KT 09/05 A3003 RMK A01 T00890054  RH  078%=      5-min Rain = 0
KWA1 130606Z 25009KT 09/05 A3003 RMK A01 T00890054  RH  078%=      5-min Rain = 0
KWA1 130607Z 25009KT 09/05 A3003 RMK A01 T00890054  RH  078%=      5-min Rain = 0
KWA1 130608Z 25008KT 09/05 A3003 RMK A01 T00890054  RH  079%=      5-min Rain = 0
KWA1 130609Z 25008KT 09/05 A3003 RMK A01 T00880053  RH  079%=      5-min Rain = 0
KWA1 130610Z 25009KT 09/05 A3003 RMK A01 T00880053  RH  079%=      5-min Rain = 0
KWA1 130611Z 25009KT 09/05 A3003 RMK A01 T00880053  RH  079%=      5-min Rain = 0
KWA1 130612Z 25008KT 09/05 A3003 RMK A01 T00880053  RH  079%=      5-min Rain = 0
KWA1 130613Z 25008KT 09/05 A3003 RMK A01 T00870053  RH  079%=      5-min Rain = 0
KWA1 130614Z 25008KT 09/05 A3003 RMK A01 T00870053  RH  079%=      5-min Rain = 0
KWA1 130615Z 25008KT 09/05 A3003 RMK A01 T00870052  RH  079%=      5-min Rain = 0
KWA1 130616Z 25008KT 09/05 A3003 RMK A01 T00870052  RH  079%=      5-min Rain = 0
KWA1 130617Z 25010KT 09/05 A3003 RMK A01 T00870052  RH  079%=      5-min Rain = 0
KWA1 130618Z 25008KT 09/05 A3003 RMK A01 T00870052  RH  079%=      5-min Rain = 0
KWA1 130619Z 25008KT 09/05 A3003 RMK A01 T00870052  RH  079%=      5-min Rain = 0
KWA1 130620Z 25007KT 09/05 A3003 RMK A01 T00860052  RH  079%=      5-min Rain = 0
KWA1 130621Z 25008KT 09/05 A3003 RMK A01 T00860052  RH  079%=      5-min Rain = 0
KWA1 130622Z 25008KT 08/05 A3003 RMK A01 T00840051  RH  080%=      5-min Rain = 0
KWA1 130623Z 25008KT 08/05 A3003 RMK A01 T00830051  RH  080%=      5-min Rain = 0
KWA1 130624Z 25008KT 08/05 A3003 RMK A01 T00830051  RH  080%=      5-min Rain = 0
KWA1 130625Z 25008KT 08/05 A3003 RMK A01 T00830052  RH  080%=      5-min Rain = 0
KWA1 130626Z 25008KT 08/05 A3003 RMK A01 T00830051  RH  080%=      5-min Rain = 0
KWA1 130627Z 25008KT 08/05 A3003 RMK A01 T00820051  RH  081%=      5-min Rain = 0
KWA1 130628Z 25008KT 08/05 A3003 RMK A01 T00820051  RH  081%=      5-min Rain = 0
KWA1 130629Z 25008KT 08/05 A3003 RMK A01 T00820051  RH  081%=      5-min Rain = 0
KWA1 130630Z 25008KT 08/05 A3003 RMK A01 T00820051  RH  081%=      5-min Rain = 0
KWA1 130631Z 25008KT 08/05 A3003 RMK A01 T00830051  RH  080%=      5-min Rain = 0
KWA1 130632Z 25008KT 08/05 A3003 RMK A01 T00830051  RH  080%=      5-min Rain = 0
KWA1 130633Z 25008KT 08/05 A3003 RMK A01 T00830051  RH  080%=      5-min Rain = 0
KWA1 130634Z 25008KT 08/05 A3003 RMK A01 T00830051  RH  080%=      5-min Rain = 0
KWA1 130635Z 25008KT 08/05 A3003 RMK A01 T00830051  RH  080%=      5-min Rain = 0
KWA1 130636Z 25008KT 08/05 A3003 RMK A01 T00830051  RH  080%=      5-min Rain = 0
KWA1 130637Z 25008KT 08/05 A3003 RMK A01 T00830051  RH  080%=      5-min Rain = 0
KWA1 130638Z 25008KT 08/05 A3003 RMK A01 T00830051  RH  080%=      5-min Rain = 0
KWA1 130639Z 25008KT 08/05 A3003 RMK A01 T00830051  RH  080%=      5-min Rain = 0
KWA1 130640Z 25008KT 08/05 A3003 RMK A01 T00830051  RH  080%=      5-min Rain = 0
KWA1 130641Z 25009KT 08/05 A3003 RMK A01 T00830051  RH  080%=      5-min Rain = 0
KWA1 130642Z 24009KT 08/05 A3003 RMK A01 T00830051  RH  080%=      5-min Rain = 0
KWA1 130643Z 24008KT 08/05 A3002 RMK A01 T00830050  RH  080%=      5-min Rain = 0
KWA1 130644Z 24008KT 08/05 A3003 RMK A01 T00830050  RH  080%=      5-min Rain = 0
KWA1 130645Z 24009KT 08/05 A3003 RMK A01 T00830050  RH  080%=      5-min Rain = 0
KWA1 130646Z 24009KT 08/05 A3002 RMK A01 T00830050  RH  080%=      5-min Rain = 0
KWA1 130647Z 23009KT 08/05 A3002 RMK A01 T00830050  RH  080%=      5-min Rain = 0
KWA1 130648Z 24008KT 08/05 A3002 RMK A01 T00840051  RH  080%=      5-min Rain = 0
KWA1 130649Z 24008KT 08/05 A3002 RMK A01 T00840050  RH  080%=      5-min Rain = 0
KWA1 130650Z 25008KT 08/05 A3002 RMK A01 T00830050  RH  080%=      5-min Rain = 0
KWA1 130651Z 25007KT 08/05 A3002 RMK A01 T00830050  RH  080%=      5-min Rain = 0
KWA1 130652Z 25007KT 08/05 A3002 RMK A01 T00810050  RH  081%=      5-min Rain = 0
KWA1 130653Z 25006KT 08/05 A3002 RMK A01 T00800050  RH  081%=      5-min Rain = 0
KWA1 130654Z 25006KT 08/05 A3002 RMK A01 T00790049  RH  082%=      5-min Rain = 0
KWA1 130655Z 25006KT 08/05 A3002 RMK A01 T00780049  RH  082%=      5-min Rain = 0
KWA1 130656Z 26006KT 08/05 A3002 RMK A01 T00770049  RH  082%=      5-min Rain = 0
KWA1 130657Z 26006KT 08/05 A3002 RMK A01 T00770049  RH  082%=      5-min Rain = 0
KWA1 130658Z 26007KT 08/05 A3002 RMK A01 T00760049  RH  083%=      5-min Rain = 0
KWA1 130659Z 26007KT 08/05 A3002 RMK A01 T00760049  RH  083%=      5-min Rain = 0
KWA1 130700Z 25007KT 08/05 A3002 RMK A01 T00760049  RH  083%=      5-min Rain = 0
KWA1 130701Z 25009KT 08/05 A3002 RMK A01 T00760049  RH  083%=      5-min Rain = 0
KWA1 130702Z 24008KT 08/05 A3002 RMK A01 T00770049  RH  083%=      5-min Rain = 0
KWA1 130703Z 24009KT 08/05 A3002 RMK A01 T00780050  RH  082%=      5-min Rain = 0
KWA1 130704Z 23009KT 08/05 A3002 RMK A01 T00790049  RH  082%=      5-min Rain = 0
KWA1 130705Z 23009KT 08/05 A3002 RMK A01 T00790049  RH  081%=      5-min Rain = 0
KWA1 130706Z 24008KT 08/05 A3002 RMK A01 T00790049  RH  081%=      5-min Rain = 0
KWA1 130707Z 24008KT 08/05 A3002 RMK A01 T00780049  RH  082%=      5-min Rain = 0
KWA1 130708Z 24008KT 08/05 A3002 RMK A01 T00770048  RH  082%=      5-min Rain = 0
KWA1 130709Z 24007KT 08/05 A3002 RMK A01 T00760048  RH  083%=      5-min Rain = 0
KWA1 130710Z 24008KT 08/05 A3002 RMK A01 T00750048  RH  083%=      5-min Rain = 0
KWA1 130711Z 24008KT 07/05 A3002 RMK A01 T00740048  RH  083%=      5-min Rain = 0
KWA1 130712Z 25007KT 07/05 A3002 RMK A01 T00740048  RH  084%=      5-min Rain = 0
KWA1 130713Z 25008KT 07/05 A3002 RMK A01 T00740048  RH  084%=      5-min Rain = 0
KWA1 130714Z 25008KT 08/05 A3002 RMK A01 T00750048  RH  083%=      5-min Rain = 0
KWA1 130715Z 25008KT 08/05 A3002 RMK A01 T00750049  RH  083%=      5-min Rain = 0
KWA1 130716Z 24009KT 08/05 A3002 RMK A01 T00760049  RH  083%=      5-min Rain = 0
KWA1 130717Z 24009KT 08/05 A3002 RMK A01 T00760048  RH  083%=      5-min Rain = 0
KWA1 130718Z 24009KT 08/05 A3002 RMK A01 T00760048  RH  083%=      5-min Rain = 0
KWA1 130719Z 24009KT 08/05 A3001 RMK A01 T00760048  RH  083%=      5-min Rain = 0
KWA1 130720Z 24010KT 08/05 A3001 RMK A01 T00760048  RH  083%=      5-min Rain = 0
KWA1 130721Z 24009KT 08/05 A3001 RMK A01 T00760048  RH  082%=      5-min Rain = 0
KWA1 130722Z 24009KT 08/05 A3001 RMK A01 T00760048  RH  082%=      5-min Rain = 0
KWA1 130723Z 25010KT 08/05 A3001 RMK A01 T00760048  RH  082%=      5-min Rain = 0
KWA1 130724Z 24010KT 08/05 A3001 RMK A01 T00760048  RH  083%=      5-min Rain = 0
KWA1 130725Z 24010KT 08/05 A3001 RMK A01 T00760049  RH  083%=      5-min Rain = 0
KWA1 130726Z 24010KT 08/05 A3001 RMK A01 T00760049  RH  083%=      5-min Rain = 0
KWA1 130727Z 24010KT 08/05 A3001 RMK A01 T00780049  RH  082%=      5-min Rain = 0
KWA1 130728Z 24010KT 08/05 A3001 RMK A01 T00780049  RH  082%=      5-min Rain = 0
KWA1 130729Z 24010KT 08/05 A30 RMK A01 T00790050  RH  082%=      5-min Rain = 0
KWA1 130730Z 24009KT 08/05 A30 RMK A01 T00790049  RH  082%=      5-min Rain = 0
KWA1 130731Z 24010KT 08/05 A30 RMK A01 T00790049  RH  082%=      5-min Rain = 0
KWA1 130732Z 24009KT 08/05 A30 RMK A01 T00790050  RH  082%=      5-min Rain = 0
KWA1 130733Z 24009KT 08/05 A30 RMK A01 T00800050  RH  081%=      5-min Rain = 0
KWA1 130734Z 24009KT 08/05 A30 RMK A01 T00800050  RH  081%=      5-min Rain = 0
KWA1 130735Z 24009KT 08/05 A30 RMK A01 T00810050  RH  081%=      5-min Rain = 0
KWA1 130736Z 24008KT 08/05 A30 RMK A01 T00810050  RH  081%=      5-min Rain = 0
KWA1 130737Z 24008KT 08/05 A30 RMK A01 T00800049  RH  081%=      5-min Rain = 0
KWA1 130738Z 24008KT 08/05 A30 RMK A01 T00790049  RH  081%=      5-min Rain = 0
KWA1 130739Z 24007KT 08/05 A30 RMK A01 T00790049  RH  082%=      5-min Rain = 0
KWA1 130740Z 24007KT 08/05 A30 RMK A01 T00790049  RH  082%=      5-min Rain = 0
KWA1 130741Z 24007KT 08/05 A30 RMK A01 T00780049  RH  082%=      5-min Rain = 0
KWA1 130742Z 24007KT 08/05 A30 RMK A01 T00770049  RH  082%=      5-min Rain = 0
KWA1 130743Z 23007KT 08/05 A30 RMK A01 T00760048  RH  082%=      5-min Rain = 0
KWA1 130744Z 23008KT 08/05 A2999 RMK A01 T00750048  RH  083%=      5-min Rain = 0
KWA1 130745Z 23008KT 08/05 A2999 RMK A01 T00750048  RH  083%=      5-min Rain = 0
KWA1 130746Z 23008KT 08/05 A2999 RMK A01 T00750048  RH  083%=      5-min Rain = 0
KWA1 130747Z 23008KT 08/05 A2999 RMK A01 T00750048  RH  083%=      5-min Rain = 0
KWA1 130748Z 23008KT 08/05 A2999 RMK A01 T00760048  RH  083%=      5-min Rain = 0
KWA1 130749Z 23007KT 08/05 A2999 RMK A01 T00760049  RH  083%=      5-min Rain = 0
KWA1 130750Z 23007KT 08/05 A2999 RMK A01 T00770049  RH  082%=      5-min Rain = 0
KWA1 130751Z 24007KT 08/05 A2999 RMK A01 T00780049  RH  082%=      5-min Rain = 0
KWA1 130752Z 24007KT 08/05 A2999 RMK A01 T00780049  RH  082%=      5-min Rain = 0
KWA1 130753Z 24006KT 08/05 A2999 RMK A01 T00780049  RH  082%=      5-min Rain = 0
KWA1 130754Z 24007KT 08/05 A2999 RMK A01 T00770048  RH  082%=      5-min Rain = 0
KWA1 130755Z 24006KT 08/05 A2999 RMK A01 T00770048  RH  082%=      5-min Rain = 0
KWA1 130756Z 24007KT 08/05 A2999 RMK A01 T00760049  RH  083%=      5-min Rain = 0
KWA1 130757Z 24006KT 08/05 A2999 RMK A01 T00760049  RH  083%=      5-min Rain = 0
KWA1 130758Z 24006KT 08/05 A2999 RMK A01 T00760049  RH  083%=      5-min Rain = 0
KWA1 130759Z 24007KT 08/05 A2999 RMK A01 T00760049  RH  083%=      5-min Rain = 0
KWA1 130800Z 24007KT 08/05 A2999 RMK A01 T00760050  RH  083%=      5-min Rain = 0
KWA1 130801Z 24007KT 08/05 A2999 RMK A01 T00770049  RH  083%=      5-min Rain = 0
KWA1 130802Z 24006KT 08/05 A2999 RMK A01 T00770049  RH  083%=      5-min Rain = 0
KWA1 130803Z 24007KT 08/05 A2999 RMK A01 T00770049  RH  083%=      5-min Rain = 0
KWA1 130804Z 24007KT 08/05 A2999 RMK A01 T00770049  RH  083%=      5-min Rain = 0
KWA1 130805Z 25007KT 08/05 A2999 RMK A01 T00770049  RH  083%=      5-min Rain = 0
KWA1 130806Z 24007KT 08/05 A2999 RMK A01 T00770050  RH  083%=      5-min Rain = 0
KWA1 130807Z 24007KT 08/05 A2999 RMK A01 T00780050  RH  082%=      5-min Rain = 0
KWA1 130808Z 24007KT 08/05 A2999 RMK A01 T00780050  RH  082%=      5-min Rain = 0
KWA1 130809Z 24008KT 08/05 A2999 RMK A01 T00790050  RH  082%=      5-min Rain = 0
KWA1 130810Z 24008KT 08/05 A2999 RMK A01 T00790050  RH  082%=      5-min Rain = 0
KWA1 130811Z 24007KT 08/05 A2999 RMK A01 T00810051  RH  081%=      5-min Rain = 0
KWA1 130812Z 24008KT 08/05 A2999 RMK A01 T00810050  RH  081%=      5-min Rain = 0
KWA1 130813Z 24009KT 08/05 A2999 RMK A01 T00820051  RH  081%=      5-min Rain = 0
KWA1 130814Z 24010KT 08/05 A2999 RMK A01 T00820051  RH  081%=      5-min Rain = 0
KWA1 130815Z 24009KT 08/05 A2999 RMK A01 T00830051  RH  080%=      5-min Rain = 0
KWA1 130816Z 24009KT 08/05 A2999 RMK A01 T00830051  RH  080%=      5-min Rain = 0
KWA1 130817Z 24009KT 08/05 A2998 RMK A01 T00830051  RH  080%=      5-min Rain = 0
KWA1 130818Z 24010KT 08/05 A2998 RMK A01 T00830051  RH  080%=      5-min Rain = 0
KWA1 130819Z 24009KT 08/05 A2998 RMK A01 T00830051  RH  080%=      5-min Rain = 0
KWA1 130820Z 23009KT 08/05 A2998 RMK A01 T00830051  RH  080%=      5-min Rain = 0
KWA1 130821Z 23010KT 08/05 A2998 RMK A01 T00830051  RH  080%=      5-min Rain = 0
KWA1 130822Z 23010KT 08/05 A2998 RMK A01 T00830051  RH  080%=      5-min Rain = 0
KWA1 130823Z 23011KT 08/05 A2998 RMK A01 T00830051  RH  080%=      5-min Rain = 0
KWA1 130824Z 23010KT 08/05 A2998 RMK A01 T00830051  RH  080%=      5-min Rain = 0
KWA1 130825Z 23010KT 08/05 A2998 RMK A01 T00830051  RH  080%=      5-min Rain = 0
KWA1 130826Z 23010KT 08/05 A2998 RMK A01 T00830051  RH  080%=      5-min Rain = 0
KWA1 130827Z 23010KT 08/05 A2998 RMK A01 T00830051  RH  080%=      5-min Rain = 0
KWA1 130828Z 23011KT 08/05 A2997 RMK A01 T00830051  RH  080%=      5-min Rain = 0
KWA1 130829Z 23010KT 08/05 A2997 RMK A01 T00840051  RH  080%=      5-min Rain = 0
KWA1 130830Z 23010KT 08/05 A2997 RMK A01 T00840051  RH  080%=      5-min Rain = 0
KWA1 130831Z 23010KT 08/05 A2997 RMK A01 T00830051  RH  080%=      5-min Rain = 0
KWA1 130832Z 23010KT 08/05 A2997 RMK A01 T00830051  RH  080%=      5-min Rain = 0
KWA1 130833Z 23011KT 08/05 A2997 RMK A01 T00820051  RH  080%=      5-min Rain = 0
KWA1 130834Z 23011KT 08/05 A2997 RMK A01 T00820051  RH  081%=      5-min Rain = 0
KWA1 130835Z 23010KT 08/05 A2997 RMK A01 T00820051  RH  081%=      5-min Rain = 0
KWA1 130836Z 23010KT 08/05 A2997 RMK A01 T00820050  RH  081%=      5-min Rain = 0
KWA1 130837Z 23008KT 08/05 A2997 RMK A01 T00820051  RH  081%=      5-min Rain = 0
KWA1 130838Z 23010KT 08/05 A2997 RMK A01 T00810050  RH  081%=      5-min Rain = 0
KWA1 130839Z 24011KT 08/05 A2997 RMK A01 T00810051  RH  081%=      5-min Rain = 0
KWA1 130840Z 24010KT 08/05 A2997 RMK A01 T00810050  RH  081%=      5-min Rain = 0
KWA1 130841Z 24009KT 08/05 A2997 RMK A01 T00810050  RH  081%=      5-min Rain = 0
KWA1 130842Z 23010KT 08/05 A2997 RMK A01 T00810050  RH  081%=      5-min Rain = 0
KWA1 130843Z 23011KT 08/05 A2997 RMK A01 T00800050  RH  081%=      5-min Rain = 0
KWA1 130844Z 23011KT 08/05 A2997 RMK A01 T00800050  RH  081%=      5-min Rain = 0
KWA1 130845Z 23011KT 08/05 A2997 RMK A01 T00800050  RH  081%=      5-min Rain = 0
KWA1 130846Z 23011KT 08/05 A2997 RMK A01 T00810050  RH  081%=      5-min Rain = 0
KWA1 130847Z 24011KT 08/05 A2997 RMK A01 T00810050  RH  081%=      5-min Rain = 0
KWA1 130848Z 23011KT 08/05 A2997 RMK A01 T00810050  RH  081%=      5-min Rain = 0
KWA1 130849Z 23011KT 08/05 A2997 RMK A01 T00810050  RH  081%=      5-min Rain = 0
KWA1 130850Z 23011KT 08/05 A2997 RMK A01 T00810050  RH  081%=      5-min Rain = 0
KWA1 130851Z 23012KT 08/05 A2996 RMK A01 T00810050  RH  081%=      5-min Rain = 0
KWA1 130852Z 23011KT 08/05 A2996 RMK A01 T00810050  RH  081%=      5-min Rain = 0
KWA1 130853Z 23012KT 08/05 A2996 RMK A01 T00810050  RH  081%=      5-min Rain = 0
KWA1 130854Z 23012KT 08/05 A2996 RMK A01 T00810050  RH  081%=      5-min Rain = 0
KWA1 130855Z 23013KT 08/05 A2996 RMK A01 T00810050  RH  081%=      5-min Rain = 0
KWA1 130856Z 23014KT 08/05 A2996 RMK A01 T00810050  RH  081%=      5-min Rain = 0
KWA1 130857Z 23013KT 08/05 A2996 RMK A01 T00820050  RH  080%=      5-min Rain = 0
KWA1 130858Z 23013KT 08/05 A2996 RMK A01 T00820050  RH  080%=      5-min Rain = 0
KWA1 130859Z 23015KT 08/05 A2996 RMK A01 T00820050  RH  080%=      5-min Rain = 0
KWA1 130900Z 23014KT 08/05 A2996 RMK A01 T00820050  RH  080%=      5-min Rain = 0
KWA1 130901Z 23014KT 08/05 A2996 RMK A01 T00820050  RH  080%=      5-min Rain = 0
KWA1 130902Z 23014KT 08/05 A2996 RMK A01 T00820050  RH  080%=      5-min Rain = 0
KWA1 130903Z 23015KT 08/05 A2996 RMK A01 T00820050  RH  080%=      5-min Rain = 0
KWA1 130904Z 23014KT 08/05 A2996 RMK A01 T00830050  RH  080%=      5-min Rain = 0
KWA1 130905Z 23014KT 08/05 A2996 RMK A01 T00830050  RH  080%=      5-min Rain = 0
KWA1 130906Z 23014KT 08/05 A2996 RMK A01 T00820050  RH  080%=      5-min Rain = 0
KWA1 130907Z 23014G19KT 08/05 A2996 RMK A01 T00820050  RH  080%=      5-min Rain = 0
KWA1 130908Z 23015KT 08/05 A2997 RMK A01 T00830050  RH  080%=      5-min Rain = 0
KWA1 130909Z 23015KT 08/05 A2997 RMK A01 T00830049  RH  080%=      5-min Rain = 0
KWA1 130910Z 23014KT 08/05 A2997 RMK A01 T00830050  RH  080%=      5-min Rain = 0
KWA1 130911Z 23016KT 08/05 A2997 RMK A01 T00830050  RH  080%=      5-min Rain = 0
KWA1 130912Z 23014KT 08/05 A2997 RMK A01 T00830050  RH  080%=      5-min Rain = 0
KWA1 130913Z 23015KT 08/05 A2997 RMK A01 T00830050  RH  079%=      5-min Rain = 0
KWA1 130914Z 23013KT 08/05 A2997 RMK A01 T00830050  RH  080%=      5-min Rain = 0
KWA1 130915Z 23014KT 08/05 A2997 RMK A01 T00830050  RH  080%=      5-min Rain = 0
KWA1 130916Z 23013KT 08/05 A2997 RMK A01 T00830050  RH  080%=      5-min Rain = 0
KWA1 130917Z 24013KT 08/05 A2997 RMK A01 T00830050  RH  080%=      5-min Rain = 0
KWA1 130918Z 24013KT 08/05 A2997 RMK A01 T00830050  RH  080%=      5-min Rain = 0
KWA1 130919Z 24013KT 08/05 A2997 RMK A01 T00820050  RH  080%=      5-min Rain = 0
KWA1 130920Z 24014KT 08/05 A2997 RMK A01 T00820050  RH  080%=      5-min Rain = 0
KWA1 130921Z 24015KT 08/05 A2997 RMK A01 T00820050  RH  080%=      5-min Rain = 0
KWA1 130922Z 23015KT 08/05 A2997 RMK A01 T00830050  RH  080%=      5-min Rain = 0
KWA1 130923Z 23014KT 08/05 A2997 RMK A01 T00830050  RH  079%=      5-min Rain = 0
KWA1 130924Z 24013KT 08/05 A2997 RMK A01 T00830050  RH  079%=      5-min Rain = 0
KWA1 130925Z 24014KT 08/05 A2997 RMK A01 T00830050  RH  080%=      5-min Rain = 0
KWA1 130926Z 24013KT 08/05 A2997 RMK A01 T00820050  RH  080%=      5-min Rain = 0
KWA1 130927Z 24013KT 08/05 A2997 RMK A01 T00820050  RH  080%=      5-min Rain = 0
KWA1 130928Z 24013KT 08/05 A2997 RMK A01 T00810050  RH  080%=      5-min Rain = 0
KWA1 130929Z 24014KT 08/05 A2997 RMK A01 T00810049  RH  080%=      5-min Rain = 0
KWA1 130930Z 24014KT 08/05 A2997 RMK A01 T00810050  RH  080%=      5-min Rain = 0
KWA1 130931Z 24013KT 08/05 A2997 RMK A01 T00810049  RH  080%=      5-min Rain = 0
KWA1 130932Z 24012KT 08/05 A2997 RMK A01 T00810049  RH  081%=      5-min Rain = 0
KWA1 130933Z 24012KT 08/05 A2997 RMK A01 T00800049  RH  081%=      5-min Rain = 0
KWA1 130934Z 24012KT 08/05 A2997 RMK A01 T00800049  RH  081%=      5-min Rain = 0
KWA1 130935Z 24012KT 08/05 A2997 RMK A01 T00790049  RH  081%=      5-min Rain = 0
KWA1 130936Z 24012KT 08/05 A2997 RMK A01 T00790049  RH  082%=      5-min Rain = 0
KWA1 130937Z 24012KT 08/05 A2997 RMK A01 T00780049  RH  082%=      5-min Rain = 0
KWA1 130938Z 24011KT 08/05 A2997 RMK A01 T00780049  RH  082%=      5-min Rain = 0
KWA1 130939Z 24011KT 08/05 A2997 RMK A01 T00770048  RH  082%=      5-min Rain = 0
KWA1 130940Z 24012KT 08/05 A2997 RMK A01 T00770049  RH  082%=      5-min Rain = 0
KWA1 130941Z 24012KT 08/05 A2997 RMK A01 T00760048  RH  083%=      5-min Rain = 0
KWA1 130942Z 24012KT 08/05 A2997 RMK A01 T00760048  RH  082%=      5-min Rain = 0
KWA1 130943Z 24012KT 08/05 A2997 RMK A01 T00760048  RH  082%=      5-min Rain = 0
KWA1 130944Z 24011KT 08/05 A2997 RMK A01 T00770048  RH  082%=      5-min Rain = 0
KWA1 130945Z 24012KT 08/05 A2997 RMK A01 T00770048  RH  082%=      5-min Rain = 0
KWA1 130946Z 24011KT 08/05 A2997 RMK A01 T00770048  RH  082%=      5-min Rain = 0
KWA1 130947Z 24011KT 08/05 A2997 RMK A01 T00770048  RH  082%=      5-min Rain = 0
KWA1 130948Z 24010KT 08/05 A2997 RMK A01 T00770048  RH  082%=      5-min Rain = 0
KWA1 130949Z 24010KT 08/05 A2997 RMK A01 T00770048  RH  082%=      5-min Rain = 0
KWA1 130950Z 24010KT 08/05 A2997 RMK A01 T00770048  RH  082%=      5-min Rain = 0
KWA1 130951Z 24010KT 08/05 A2997 RMK A01 T00770048  RH  082%=      5-min Rain = 0
KWA1 130952Z 24010KT 08/05 A2997 RMK A01 T00760048  RH  082%=      5-min Rain = 0
KWA1 130953Z 24010KT 08/05 A2997 RMK A01 T00760047  RH  082%=      5-min Rain = 0
KWA1 130954Z 24010KT 08/05 A2997 RMK A01 T00760047  RH  082%=      5-min Rain = 0
KWA1 130955Z 24010KT 08/05 A2997 RMK A01 T00750047  RH  083%=      5-min Rain = 0
KWA1 130956Z 24010KT 08/05 A2997 RMK A01 T00750047  RH  083%=      5-min Rain = 0
KWA1 130957Z 24010KT 08/05 A2997 RMK A01 T00750047  RH  083%=      5-min Rain = 0
KWA1 130958Z 24010KT 08/05 A2997 RMK A01 T00750048  RH  083%=      5-min Rain = 0
KWA1 130959Z 24011KT 08/05 A2997 RMK A01 T00750047  RH  083%=      5-min Rain = 0
KWA1 131000Z 24011KT 08/05 A2997 RMK A01 T00750048  RH  083%=      5-min Rain = 0
KWA1 131001Z 24011KT 08/05 A2997 RMK A01 T00750047  RH  082%=      5-min Rain = 0
KWA1 131002Z 24010KT 08/05 A2997 RMK A01 T00760048  RH  082%=      5-min Rain = 0
KWA1 131003Z 24011KT 08/05 A2997 RMK A01 T00760047  RH  082%=      5-min Rain = 0
KWA1 131004Z 24011KT 08/05 A2997 RMK A01 T00760047  RH  082%=      5-min Rain = 0
KWA1 131005Z 24010KT 08/05 A2997 RMK A01 T00770048  RH  082%=      5-min Rain = 0
KWA1 131006Z 23010KT 08/05 A2997 RMK A01 T00770048  RH  082%=      5-min Rain = 0
KWA1 131007Z 23011KT 08/05 A2997 RMK A01 T00770048  RH  082%=      5-min Rain = 0
KWA1 131008Z 23010KT 08/05 A2997 RMK A01 T00770048  RH  082%=      5-min Rain = 0
KWA1 131009Z 23011KT 08/05 A2996 RMK A01 T00770048  RH  082%=      5-min Rain = 0
KWA1 131010Z 23010KT 08/05 A2996 RMK A01 T00770048  RH  082%=      5-min Rain = 0
KWA1 131011Z 23011KT 08/05 A2996 RMK A01 T00770048  RH  082%=      5-min Rain = 0
KWA1 131012Z 23012KT 08/05 A2996 RMK A01 T00770048  RH  082%=      5-min Rain = 0
KWA1 131013Z 23011KT 08/05 A2996 RMK A01 T00770048  RH  082%=      5-min Rain = 0
KWA1 131014Z 23010KT 08/05 A2996 RMK A01 T00770048  RH  082%=      5-min Rain = 0
KWA1 131015Z 24010KT 08/05 A2996 RMK A01 T00770047  RH  082%=      5-min Rain = 0
KWA1 131016Z 23011KT 08/05 A2996 RMK A01 T00770048  RH  082%=      5-min Rain = 0
KWA1 131017Z 23011KT 08/05 A2996 RMK A01 T00770048  RH  082%=      5-min Rain = 0
KWA1 131018Z 23011KT 08/05 A2996 RMK A01 T00770048  RH  082%=      5-min Rain = 0
KWA1 131019Z 23011KT 08/05 A2996 RMK A01 T00770047  RH  081%=      5-min Rain = 0
KWA1 131020Z 23012KT 08/05 A2996 RMK A01 T00780048  RH  081%=      5-min Rain = 0
KWA1 131021Z 24012KT 08/05 A2996 RMK A01 T00790048  RH  081%=      5-min Rain = 0
KWA1 131022Z 24011KT 08/05 A2996 RMK A01 T00790048  RH  081%=      5-min Rain = 0
KWA1 131023Z 23012KT 08/05 A2996 RMK A01 T00790048  RH  081%=      5-min Rain = 0
KWA1 131024Z 24010KT 08/05 A2996 RMK A01 T00790048  RH  081%=      5-min Rain = 0
KWA1 131025Z 24011KT 08/05 A2996 RMK A01 T00780047  RH  081%=      5-min Rain = 0
KWA1 131026Z 24011KT 08/05 A2996 RMK A01 T00780047  RH  081%=      5-min Rain = 0
KWA1 131027Z 24011KT 08/05 A2996 RMK A01 T00780047  RH  081%=      5-min Rain = 0
KWA1 131028Z 24011KT 08/05 A2996 RMK A01 T00790047  RH  081%=      5-min Rain = 0
KWA1 131029Z 24012KT 08/05 A2996 RMK A01 T00790047  RH  081%=      5-min Rain = 0
KWA1 131030Z 23011KT 08/05 A2996 RMK A01 T00800048  RH  080%=      5-min Rain = 0
KWA1 131031Z 23012KT 08/05 A2996 RMK A01 T00800048  RH  080%=      5-min Rain = 0
KWA1 131032Z 24011KT 08/05 A2996 RMK A01 T00790047  RH  080%=      5-min Rain = 0
KWA1 131033Z 24011KT 08/05 A2996 RMK A01 T00790047  RH  080%=      5-min Rain = 0
KWA1 131034Z 24012KT 08/05 A2996 RMK A01 T00800048  RH  080%=      5-min Rain = 0
KWA1 131035Z 24012KT 08/05 A2996 RMK A01 T00800048  RH  080%=      5-min Rain = 0
KWA1 131036Z 24013KT 08/05 A2996 RMK A01 T00800047  RH  080%=      5-min Rain = 0
KWA1 131037Z 24011KT 08/05 A2996 RMK A01 T00790047  RH  080%=      5-min Rain = 0
KWA1 131038Z 23012KT 08/05 A2996 RMK A01 T00800048  RH  080%=      5-min Rain = 0
KWA1 131039Z 24012KT 08/05 A2996 RMK A01 T00800047  RH  080%=      5-min Rain = 0
KWA1 131040Z 24013KT 08/05 A2996 RMK A01 T00790047  RH  080%=      5-min Rain = 0
KWA1 131041Z 23013KT 08/05 A2995 RMK A01 T00790047  RH  080%=      5-min Rain = 0
KWA1 131042Z 24013KT 08/05 A2995 RMK A01 T00790047  RH  080%=      5-min Rain = 0
KWA1 131043Z 24012KT 08/05 A2996 RMK A01 T00790047  RH  080%=      5-min Rain = 0
KWA1 131044Z 23012KT 08/05 A2996 RMK A01 T00800047  RH  080%=      5-min Rain = 0
KWA1 131045Z 24012KT 08/05 A2996 RMK A01 T00800047  RH  080%=      5-min Rain = 0
KWA1 131046Z 24012KT 08/05 A2996 RMK A01 T00800047  RH  079%=      5-min Rain = 0
KWA1 131047Z 23012KT 08/05 A2996 RMK A01 T00800046  RH  079%=      5-min Rain = 0
KWA1 131048Z 23011KT 08/05 A2996 RMK A01 T00800047  RH  079%=      5-min Rain = 0
KWA1 131049Z 24012KT 08/05 A2996 RMK A01 T00800047  RH  079%=      5-min Rain = 0
KWA1 131050Z 23011KT 08/05 A2996 RMK A01 T00800046  RH  080%=      5-min Rain = 0
KWA1 131051Z 24011KT 08/05 A2996 RMK A01 T00800047  RH  080%=      5-min Rain = 0
KWA1 131052Z 24010KT 08/05 A2996 RMK A01 T00790046  RH  080%=      5-min Rain = 0
KWA1 131053Z 23011KT 08/05 A2996 RMK A01 T00790046  RH  080%=      5-min Rain = 0
KWA1 131054Z 23011KT 08/05 A2995 RMK A01 T00790046  RH  080%=      5-min Rain = 0
KWA1 131055Z 23011KT 08/05 A2995 RMK A01 T00790046  RH  080%=      5-min Rain = 0
KWA1 131056Z 23012KT 08/05 A2995 RMK A01 T00790046  RH  080%=      5-min Rain = 0
KWA1 131057Z 23011KT 08/05 A2995 RMK A01 T00790046  RH  080%=      5-min Rain = 0
KWA1 131058Z 23011KT 08/05 A2995 RMK A01 T00790046  RH  080%=      5-min Rain = 0
KWA1 131059Z 23011KT 08/05 A2995 RMK A01 T00780046  RH  080%=      5-min Rain = 0
KWA1 131100Z 23011KT 08/05 A2995 RMK A01 T00780046  RH  080%=      5-min Rain = 0
KWA1 131101Z 23012KT 08/05 A2995 RMK A01 T00780046  RH  080%=      5-min Rain = 0
KWA1 131102Z 23011KT 08/05 A2995 RMK A01 T00780046  RH  080%=      5-min Rain = 0
KWA1 131103Z 23011KT 08/05 A2995 RMK A01 T00780046  RH  080%=      5-min Rain = 0
KWA1 131104Z 23011KT 08/05 A2995 RMK A01 T00770045  RH  080%=      5-min Rain = 0
KWA1 131105Z 23011KT 08/05 A2995 RMK A01 T00770045  RH  081%=      5-min Rain = 0
KWA1 131106Z 23011KT 08/05 A2995 RMK A01 T00770046  RH  081%=      5-min Rain = 0
KWA1 131107Z 23010KT 08/05 A2995 RMK A01 T00760045  RH  081%=      5-min Rain = 0
KWA1 131108Z 23010KT 08/05 A2995 RMK A01 T00760045  RH  081%=      5-min Rain = 0
KWA1 131109Z 23010KT 08/05 A2995 RMK A01 T00760045  RH  081%=      5-min Rain = 0
KWA1 131110Z 23010KT 08/05 A2995 RMK A01 T00750045  RH  081%=      5-min Rain = 0
KWA1 131111Z 23010KT 08/05 A2995 RMK A01 T00750045  RH  081%=      5-min Rain = 0
KWA1 131112Z 24010KT 08/05 A2995 RMK A01 T00750045  RH  081%=      5-min Rain = 0
KWA1 131113Z 24010KT 07/04 A2995 RMK A01 T00740044  RH  081%=      5-min Rain = 0
KWA1 131114Z 23010KT 08/05 A2995 RMK A01 T00750045  RH  081%=      5-min Rain = 0
KWA1 131115Z 23011KT 08/05 A2995 RMK A01 T00750045  RH  081%=      5-min Rain = 0
KWA1 131116Z 23011KT 08/05 A2995 RMK A01 T00750045  RH  081%=      5-min Rain = 0
KWA1 131117Z 23011KT 07/04 A2995 RMK A01 T00740044  RH  081%=      5-min Rain = 0
KWA1 131118Z 24010KT 07/04 A2995 RMK A01 T00740044  RH  081%=      5-min Rain = 0
KWA1 131119Z 23010KT 07/04 A2995 RMK A01 T00740044  RH  081%=      5-min Rain = 0
KWA1 131120Z 23011KT 07/04 A2995 RMK A01 T00740044  RH  081%=      5-min Rain = 0
KWA1 131121Z 23011KT 07/04 A2995 RMK A01 T00740044  RH  081%=      5-min Rain = 0
KWA1 131122Z 23010KT 07/04 A2995 RMK A01 T00740044  RH  081%=      5-min Rain = 0
KWA1 131123Z 23010KT 07/04 A2995 RMK A01 T00740044  RH  081%=      5-min Rain = 0
KWA1 131124Z 23010KT 07/04 A2995 RMK A01 T00730044  RH  081%=      5-min Rain = 0
KWA1 131125Z 23010KT 07/04 A2995 RMK A01 T00730044  RH  082%=      5-min Rain = 0
KWA1 131126Z 24011KT 07/04 A2995 RMK A01 T00730043  RH  082%=      5-min Rain = 0
KWA1 131127Z 23010KT 07/04 A2995 RMK A01 T00730044  RH  081%=      5-min Rain = 0
KWA1 131128Z 23010KT 07/04 A2995 RMK A01 T00730043  RH  081%=      5-min Rain = 0
KWA1 131129Z 24011KT 07/04 A2995 RMK A01 T00730043  RH  081%=      5-min Rain = 0
KWA1 131130Z 24010KT 07/04 A2995 RMK A01 T00730043  RH  081%=      5-min Rain = 0
KWA1 131131Z 23010KT 07/04 A2996 RMK A01 T00730043  RH  081%=      5-min Rain = 0
KWA1 131132Z 23010KT 07/04 A2996 RMK A01 T00730043  RH  081%=      5-min Rain = 0
KWA1 131133Z 23010KT 07/04 A2996 RMK A01 T00730043  RH  081%=      5-min Rain = 0
KWA1 131134Z 23010KT 07/04 A2996 RMK A01 T00730043  RH  081%=      5-min Rain = 0
KWA1 131135Z 24010KT 07/04 A2995 RMK A01 T00720043  RH  082%=      5-min Rain = 0
KWA1 131136Z 23010KT 07/04 A2995 RMK A01 T00720043  RH  082%=      5-min Rain = 0
KWA1 131137Z 23010KT 07/04 A2995 RMK A01 T00710042  RH  082%=      5-min Rain = 0
KWA1 131138Z 23010KT 07/04 A2995 RMK A01 T00710042  RH  082%=      5-min Rain = 0
KWA1 131139Z 23009KT 07/04 A2995 RMK A01 T00700042  RH  082%=      5-min Rain = 0
KWA1 131140Z 24009KT 07/04 A2995 RMK A01 T00700042  RH  082%=      5-min Rain = 0
KWA1 131141Z 23009KT 07/04 A2995 RMK A01 T00700042  RH  083%=      5-min Rain = 0
KWA1 131142Z 23009KT 07/04 A2995 RMK A01 T00690042  RH  083%=      5-min Rain = 0
KWA1 131143Z 24009KT 07/04 A2995 RMK A01 T00690042  RH  083%=      5-min Rain = 0
KWA1 131144Z 24009KT 07/04 A2996 RMK A01 T00690041  RH  083%=      5-min Rain = 0
KWA1 131145Z 24009KT 07/04 A2996 RMK A01 T00690041  RH  083%=      5-min Rain = 0
KWA1 131146Z 24009KT 07/04 A2996 RMK A01 T00680041  RH  083%=      5-min Rain = 0
KWA1 131147Z 24008KT 07/04 A2996 RMK A01 T00680041  RH  083%=      5-min Rain = 0
KWA1 131148Z 24008KT 07/04 A2996 RMK A01 T00680041  RH  083%=      5-min Rain = 0
KWA1 131149Z 24008KT 07/04 A2996 RMK A01 T00670041  RH  083%=      5-min Rain = 0
KWA1 131150Z 24008KT 07/04 A2996 RMK A01 T00670041  RH  083%=      5-min Rain = 0
KWA1 131151Z 23008KT 07/04 A2996 RMK A01 T00670041  RH  083%=      5-min Rain = 0
KWA1 131152Z 23009KT 07/04 A2996 RMK A01 T00660040  RH  083%=      5-min Rain = 0
KWA1 131153Z 23009KT 07/04 A2995 RMK A01 T00660040  RH  083%=      5-min Rain = 0
KWA1 131154Z 23009KT 07/04 A2995 RMK A01 T00660040  RH  084%=      5-min Rain = 0
KWA1 131155Z 23010KT 07/04 A2995 RMK A01 T00650040  RH  084%=      5-min Rain = 0
KWA1 131156Z 23010KT 07/04 A2995 RMK A01 T00650040  RH  084%=      5-min Rain = 0
KWA1 131157Z 23010KT 07/04 A2995 RMK A01 T00650040  RH  084%=      5-min Rain = 0
KWA1 131158Z 22009KT 07/04 A2995 RMK A01 T00650040  RH  084%=      5-min Rain = 0
KWA1 131159Z 23009KT 07/04 A2995 RMK A01 T00670040  RH  083%=      5-min Rain = 0
KWA1 131200Z 23009KT 07/04 A2995 RMK A01 T00670040  RH  083%=      5-min Rain = 0
KWA1 131201Z 25007KT 07/04 A2995 RMK A01 T00680040  RH  083%=      5-min Rain = 0
KWA1 131202Z 24008KT 07/04 A2995 RMK A01 T00680040  RH  082%=      5-min Rain = 0
KWA1 131203Z 23009KT 07/04 A2995 RMK A01 T00680040  RH  082%=      5-min Rain = 0
KWA1 131204Z 23010KT 07/04 A2995 RMK A01 T00680040  RH  082%=      5-min Rain = 0
KWA1 131205Z 23011KT 07/04 A2994 RMK A01 T00680040  RH  082%=      5-min Rain = 0
KWA1 131206Z 22010KT 07/04 A2994 RMK A01 T00690040  RH  082%=      5-min Rain = 0
KWA1 131207Z 22010KT 07/04 A2994 RMK A01 T00690040  RH  082%=      5-min Rain = 0
KWA1 131208Z 23011KT 07/04 A2994 RMK A01 T00690041  RH  082%=      5-min Rain = 0
KWA1 131209Z 23010KT 07/04 A2995 RMK A01 T00700040  RH  082%=      5-min Rain = 0
KWA1 131210Z 23010KT 07/04 A2995 RMK A01 T00710041  RH  081%=      5-min Rain = 0
KWA1 131216Z 23011KT 07/04 A2995 RMK A01 T00680039  RH  082%=      5-min Rain = 0
KWA1 131217Z 23010KT 07/04 A2995 RMK A01 T00680039  RH  082%=      5-min Rain = 0
KWA1 131218Z 23010KT 07/04 A2995 RMK A01 T00680039  RH  082%=      5-min Rain = 0
KWA1 131219Z 22011KT 07/04 A2995 RMK A01 T00670039  RH  082%=      5-min Rain = 0
KWA1 131220Z 22011KT 07/04 A2995 RMK A01 T00670039  RH  082%=      5-min Rain = 0
KWA1 131221Z 22010KT 07/04 A2995 RMK A01 T00680039  RH  082%=      5-min Rain = 0
KWA1 131222Z 23010KT 07/04 A2995 RMK A01 T00690039  RH  082%=      5-min Rain = 0
KWA1 131223Z 23010KT 07/04 A2995 RMK A01 T00690039  RH  081%=      5-min Rain = 0
KWA1 131224Z 23009KT 07/04 A2995 RMK A01 T00700039  RH  081%=      5-min Rain = 0
KWA1 131225Z 23010KT 07/04 A2995 RMK A01 T00700039  RH  081%=      5-min Rain = 0
KWA1 131226Z 23009KT 07/04 A2995 RMK A01 T00700039  RH  081%=      5-min Rain = 0
KWA1 131227Z 23010KT 07/04 A2995 RMK A01 T00690039  RH  081%=      5-min Rain = 0
KWA1 131228Z 24010KT 07/04 A2995 RMK A01 T00690039  RH  081%=      5-min Rain = 0
KWA1 131229Z 24010KT 07/04 A2995 RMK A01 T00690039  RH  081%=      5-min Rain = 0
KWA1 131230Z 23010KT 07/04 A2995 RMK A01 T00680039  RH  081%=      5-min Rain = 0
KWA1 131231Z 23011KT 07/04 A2995 RMK A01 T00680038  RH  081%=      5-min Rain = 0
KWA1 131232Z 23011KT 07/04 A2995 RMK A01 T00680038  RH  081%=      5-min Rain = 0
KWA1 131233Z 23010KT 07/04 A2995 RMK A01 T00690039  RH  081%=      5-min Rain = 0
KWA1 131234Z 23010KT 07/04 A2995 RMK A01 T00680038  RH  081%=      5-min Rain = 0
KWA1 131235Z 23010KT 07/04 A2995 RMK A01 T00690038  RH  081%=      5-min Rain = 0
KWA1 131236Z 23010KT 07/04 A2995 RMK A01 T00680038  RH  081%=      5-min Rain = 0
KWA1 131237Z 23011KT 07/04 A2995 RMK A01 T00670038  RH  081%=      5-min Rain = 0
KWA1 131238Z 23011KT 07/04 A2995 RMK A01 T00670038  RH  081%=      5-min Rain = 0
KWA1 131239Z 24010KT 07/04 A2995 RMK A01 T00670037  RH  081%=      5-min Rain = 0
KWA1 131240Z 24010KT 07/04 A2996 RMK A01 T00670037  RH  081%=      5-min Rain = 0
KWA1 131241Z 24010KT 07/04 A2996 RMK A01 T00670037  RH  081%=      5-min Rain = 0
KWA1 131242Z 24009KT 07/04 A2996 RMK A01 T00670037  RH  081%=      5-min Rain = 0
KWA1 131243Z 24010KT 07/04 A2996 RMK A01 T00680037  RH  081%=      5-min Rain = 0
KWA1 131244Z 25009KT 07/04 A2996 RMK A01 T00670037  RH  081%=      5-min Rain = 0
KWA1 131245Z 24009KT 07/04 A2997 RMK A01 T00670037  RH  081%=      5-min Rain = 0
KWA1 131246Z 24010KT 07/04 A2997 RMK A01 T00660036  RH  081%=      5-min Rain = 0
KWA1 131247Z 25011KT 07/04 A2997 RMK A01 T00660036  RH  081%=      5-min Rain = 0
KWA1 131248Z 25011KT 07/04 A2997 RMK A01 T00650036  RH  082%=      5-min Rain = 0
KWA1 131249Z 25011KT 07/04 A2997 RMK A01 T00650036  RH  082%=      5-min Rain = 0
KWA1 131250Z 24011KT 07/04 A2997 RMK A01 T00670036  RH  081%=      5-min Rain = 0
KWA1 131251Z 24011KT 07/04 A2997 RMK A01 T00680036  RH  080%=      5-min Rain = 0
KWA1 131252Z 25009KT 07/04 A2997 RMK A01 T00690037  RH  080%=      5-min Rain = 0
KWA1 131253Z 25009KT 07/04 A2997 RMK A01 T00700037  RH  080%=      5-min Rain = 0
KWA1 131254Z 25009KT 07/04 A2997 RMK A01 T00690037  RH  080%=      5-min Rain = 0
KWA1 131255Z 24009KT 07/04 A2997 RMK A01 T00700037  RH  080%=      5-min Rain = 0
KWA1 131256Z 24009KT 07/04 A2997 RMK A01 T00700037  RH  079%=      5-min Rain = 0
KWA1 131257Z 24009KT 07/04 A2997 RMK A01 T00710037  RH  079%=      5-min Rain = 0
KWA1 131258Z 24009KT 07/04 A2997 RMK A01 T00710037  RH  079%=      5-min Rain = 0
KWA1 131259Z 24010KT 07/04 A2997 RMK A01 T00700036  RH  079%=      5-min Rain = 0
KWA1 131300Z 24010KT 07/04 A2997 RMK A01 T00690036  RH  079%=      5-min Rain = 0
KWA1 131301Z 24010KT 07/04 A2996 RMK A01 T00690036  RH  080%=      5-min Rain = 0
KWA1 131302Z 24010KT 07/04 A2996 RMK A01 T00680036  RH  080%=      5-min Rain = 0
KWA1 131303Z 24010KT 07/04 A2996 RMK A01 T00680036  RH  080%=      5-min Rain = 0
KWA1 131304Z 23010KT 07/04 A2996 RMK A01 T00680036  RH  080%=      5-min Rain = 0
KWA1 131305Z 24011KT 07/04 A2996 RMK A01 T00680036  RH  080%=      5-min Rain = 0
KWA1 131306Z 24010KT 07/04 A2996 RMK A01 T00680036  RH  080%=      5-min Rain = 0
KWA1 131307Z 24010KT 07/04 A2997 RMK A01 T00690036  RH  079%=      5-min Rain = 0
KWA1 131308Z 24011KT 07/04 A2997 RMK A01 T00690036  RH  080%=      5-min Rain = 0
KWA1 131309Z 24011KT 07/04 A2997 RMK A01 T00690036  RH  080%=      5-min Rain = 0
KWA1 131310Z 24011KT 07/04 A2997 RMK A01 T00680036  RH  080%=      5-min Rain = 0
KWA1 131311Z 24011KT 07/04 A2997 RMK A01 T00680036  RH  080%=      5-min Rain = 0
KWA1 131312Z 24011KT 07/04 A2997 RMK A01 T00680035  RH  080%=      5-min Rain = 0
KWA1 131313Z 24011KT 07/04 A2997 RMK A01 T00680035  RH  080%=      5-min Rain = 0
KWA1 131314Z 24010KT 07/04 A2997 RMK A01 T00680035  RH  080%=      5-min Rain = 0
KWA1 131315Z 24010KT 07/04 A2997 RMK A01 T00680035  RH  080%=      5-min Rain = 0
KWA1 131316Z 24010KT 07/04 A2997 RMK A01 T00680035  RH  080%=      5-min Rain = 0
KWA1 131317Z 24010KT 07/04 A2996 RMK A01 T00680035  RH  080%=      5-min Rain = 0
KWA1 131318Z 24010KT 07/04 A2996 RMK A01 T00680036  RH  080%=      5-min Rain = 0
KWA1 131319Z 23010KT 07/04 A2996 RMK A01 T00690036  RH  079%=      5-min Rain = 0
KWA1 131320Z 23010KT 07/04 A2996 RMK A01 T00700036  RH  079%=      5-min Rain = 0
KWA1 131321Z 23010KT 07/04 A2996 RMK A01 T00700036  RH  079%=      5-min Rain = 0
KWA1 131322Z 23010KT 07/04 A2996 RMK A01 T00700035  RH  079%=      5-min Rain = 0
KWA1 131323Z 24011KT 07/04 A2996 RMK A01 T00710036  RH  079%=      5-min Rain = 0
KWA1 131324Z 24011KT 07/04 A2996 RMK A01 T00710036  RH  078%=      5-min Rain = 0
KWA1 131325Z 23011KT 07/04 A2996 RMK A01 T00720036  RH  078%=      5-min Rain = 0
KWA1 131326Z 23011KT 07/04 A2996 RMK A01 T00720036  RH  078%=      5-min Rain = 0
KWA1 131327Z 23010KT 07/04 A2995 RMK A01 T00730036  RH  077%=      5-min Rain = 0
KWA1 131328Z 23011KT 07/04 A2996 RMK A01 T00730036  RH  077%=      5-min Rain = 0
KWA1 131329Z 23011KT 07/04 A2996 RMK A01 T00730036  RH  077%=      5-min Rain = 0
KWA1 131330Z 24011KT 07/04 A2996 RMK A01 T00730036  RH  077%=      5-min Rain = 0
KWA1 131331Z 24011KT 07/04 A2997 RMK A01 T00740037  RH  077%=      5-min Rain = 0
KWA1 131332Z 24011KT 07/04 A2997 RMK A01 T00740036  RH  077%=      5-min Rain = 0
KWA1 131333Z 24010KT 07/04 A2996 RMK A01 T00740036  RH  077%=      5-min Rain = 0
KWA1 131334Z 23010KT 07/04 A2996 RMK A01 T00740036  RH  077%=      5-min Rain = 0
KWA1 131335Z 23011KT 07/04 A2996 RMK A01 T00740036  RH  077%=      5-min Rain = 0
KWA1 131336Z 23011KT 07/04 A2996 RMK A01 T00740036  RH  077%=      5-min Rain = 0
KWA1 131337Z 24011KT 07/04 A2996 RMK A01 T00740036  RH  077%=      5-min Rain = 0
KWA1 131338Z 23011KT 07/04 A2996 RMK A01 T00740036  RH  077%=      5-min Rain = 0
KWA1 131339Z 23011KT 07/04 A2995 RMK A01 T00730036  RH  077%=      5-min Rain = 0
KWA1 131340Z 23011KT 07/04 A2995 RMK A01 T00730036  RH  077%=      5-min Rain = 0
KWA1 131341Z 23011KT 07/04 A2996 RMK A01 T00740036  RH  077%=      5-min Rain = 0
KWA1 131342Z 23011KT 08/04 A2996 RMK A01 T00750036  RH  076%=      5-min Rain = 0
KWA1 131343Z 24011KT 08/04 A2996 RMK A01 T00760036  RH  076%=      5-min Rain = 0
KWA1 131344Z 24011KT 08/04 A2996 RMK A01 T00760036  RH  076%=      5-min Rain = 0
KWA1 131345Z 24011KT 08/04 A2996 RMK A01 T00760036  RH  076%=      5-min Rain = 0
KWA1 131346Z 24011KT 08/04 A2996 RMK A01 T00770036  RH  075%=      5-min Rain = 0
KWA1 131347Z 23012KT 08/04 A2996 RMK A01 T00780036  RH  075%=      5-min Rain = 0
KWA1 131348Z 24011KT 08/04 A2996 RMK A01 T00790037  RH  074%=      5-min Rain = 0
KWA1 131349Z 23012KT 08/04 A2996 RMK A01 T00800037  RH  074%=      5-min Rain = 0
KWA1 131350Z 23012KT 08/04 A2996 RMK A01 T00810037  RH  074%=      5-min Rain = 0
KWA1 131351Z 23012KT 08/04 A2996 RMK A01 T00820037  RH  073%=      5-min Rain = 0
KWA1 131352Z 23012KT 08/04 A2996 RMK A01 T00830037  RH  073%=      5-min Rain = 0
KWA1 131353Z 23011KT 08/04 A2996 RMK A01 T00840037  RH  072%=      5-min Rain = 0
KWA1 131354Z 24011KT 09/04 A2996 RMK A01 T00850037  RH  072%=      5-min Rain = 0
KWA1 131355Z 24012KT 09/04 A2996 RMK A01 T00850037  RH  072%=      5-min Rain = 0
KWA1 131356Z 24011KT 09/04 A2996 RMK A01 T00850037  RH  072%=      5-min Rain = 0
KWA1 131357Z 24011KT 08/04 A2996 RMK A01 T00840038  RH  072%=      5-min Rain = 0
KWA1 131358Z 24012KT 08/04 A2997 RMK A01 T00840037  RH  072%=      5-min Rain = 0
KWA1 131359Z 24011KT 08/04 A2997 RMK A01 T00840037  RH  072%=      5-min Rain = 0
KWA1 131400Z 24011KT 08/04 A2997 RMK A01 T00840037  RH  072%=      5-min Rain = 0
KWA1 131401Z 24011KT 09/04 A2997 RMK A01 T00850038  RH  072%=      5-min Rain = 0
KWA1 131402Z 24011KT 08/04 A2997 RMK A01 T00840038  RH  073%=      5-min Rain = 0
KWA1 131403Z 24011KT 08/04 A2997 RMK A01 T00840039  RH  073%=      5-min Rain = 0
KWA1 131404Z 24011KT 08/04 A2997 RMK A01 T00840039  RH  073%=      5-min Rain = 0
KWA1 131405Z 24011KT 08/04 A2997 RMK A01 T00830039  RH  074%=      5-min Rain = 0
KWA1 131406Z 24011KT 08/04 A2997 RMK A01 T00830039  RH  074%=      5-min Rain = 0
KWA1 131407Z 24011KT 08/04 A2997 RMK A01 T00830039  RH  074%=      5-min Rain = 0
KWA1 131408Z 24011KT 08/04 A2997 RMK A01 T00830039  RH  074%=      5-min Rain = 0
KWA1 131409Z 24011KT 08/04 A2996 RMK A01 T00830039  RH  074%=      5-min Rain = 0
KWA1 131410Z 24011KT 08/04 A2996 RMK A01 T00830039  RH  073%=      5-min Rain = 0
KWA1 131411Z 24011KT 08/04 A2996 RMK A01 T00840039  RH  074%=      5-min Rain = 0
KWA1 131412Z 24011KT 08/04 A2996 RMK A01 T00840039  RH  073%=      5-min Rain = 0
KWA1 131413Z 24011KT 08/04 A2996 RMK A01 T00840039  RH  073%=      5-min Rain = 0
KWA1 131414Z 24011KT 08/04 A2996 RMK A01 T00840039  RH  074%=      5-min Rain = 0
KWA1 131415Z 24011KT 08/04 A2996 RMK A01 T00830039  RH  074%=      5-min Rain = 0
KWA1 131416Z 24011KT 08/04 A2996 RMK A01 T00840040  RH  074%=      5-min Rain = 0
KWA1 131417Z 24010KT 08/04 A2996 RMK A01 T00830039  RH  074%=      5-min Rain = 0
KWA1 131418Z 24011KT 08/04 A2996 RMK A01 T00830040  RH  074%=      5-min Rain = 0
KWA1 131419Z 24011KT 08/04 A2996 RMK A01 T00840040  RH  074%=      5-min Rain = 0
KWA1 131420Z 24011KT 09/04 A2996 RMK A01 T00850041  RH  074%=      5-min Rain = 0
KWA1 131421Z 24010KT 09/04 A2996 RMK A01 T00850041  RH  074%=      5-min Rain = 0
KWA1 131422Z 24011KT 09/04 A2996 RMK A01 T00860041  RH  074%=      5-min Rain = 0
KWA1 131423Z 24012KT 09/04 A2996 RMK A01 T00860042  RH  074%=      5-min Rain = 0
KWA1 131424Z 24011KT 09/04 A2996 RMK A01 T00870042  RH  073%=      5-min Rain = 0
KWA1 131425Z 24010KT 09/04 A2996 RMK A01 T00890042  RH  073%=      5-min Rain = 0
KWA1 131426Z 24011KT 09/04 A2996 RMK A01 T00890043  RH  073%=      5-min Rain = 0
KWA1 131427Z 24012KT 09/04 A2996 RMK A01 T00900042  RH  072%=      5-min Rain = 0
KWA1 131428Z 24012KT 09/04 A2996 RMK A01 T00910042  RH  071%=      5-min Rain = 0
KWA1 131429Z 24011KT 09/04 A2996 RMK A01 T00920043  RH  071%=      5-min Rain = 0
KWA1 131430Z 24012KT 09/04 A2996 RMK A01 T00930043  RH  071%=      5-min Rain = 0
KWA1 131431Z 24012KT 09/04 A2996 RMK A01 T00940043  RH  070%=      5-min Rain = 0
KWA1 131432Z 24011KT 10/04 A2996 RMK A01 T00950043  RH  070%=      5-min Rain = 0
KWA1 131433Z 24012KT 10/04 A2996 RMK A01 T00950044  RH  070%=      5-min Rain = 0
KWA1 131434Z 24012KT 10/04 A2996 RMK A01 T00960044  RH  070%=      5-min Rain = 0
KWA1 131435Z 24012KT 10/04 A2996 RMK A01 T00960044  RH  070%=      5-min Rain = 0
KWA1 131436Z 24012KT 10/04 A2996 RMK A01 T00960044  RH  070%=      5-min Rain = 0
KWA1 131437Z 24011KT 10/05 A2996 RMK A01 T00960045  RH  070%=      5-min Rain = 0
KWA1 131438Z 25011KT 10/05 A2997 RMK A01 T00970045  RH  070%=      5-min Rain = 0
KWA1 131439Z 25011KT 10/05 A2997 RMK A01 T00970046  RH  070%=      5-min Rain = 0
KWA1 131440Z 24012KT 10/05 A2997 RMK A01 T00970046  RH  070%=      5-min Rain = 0
KWA1 131441Z 24012KT 10/05 A2997 RMK A01 T00970046  RH  070%=      5-min Rain = 0
KWA1 131442Z 25011KT 10/05 A2997 RMK A01 T00980047  RH  071%=      5-min Rain = 0
KWA1 131443Z 24012KT 10/05 A2997 RMK A01 T00980047  RH  071%=      5-min Rain = 0
KWA1 131444Z 24011KT 10/05 A2997 RMK A01 T00990047  RH  070%=      5-min Rain = 0
KWA1 131445Z 24011KT 10/05 A2997 RMK A01 T00990047  RH  070%=      5-min Rain = 0
KWA1 131446Z 24011KT 10/05 A2997 RMK A01 T01000048  RH  070%=      5-min Rain = 0
KWA1 131447Z 24012KT 10/05 A2997 RMK A01 T01000048  RH  070%=      5-min Rain = 0
KWA1 131448Z 24011KT 10/05 A2996 RMK A01 T01010048  RH  070%=      5-min Rain = 0
KWA1 131449Z 24011KT 10/05 A2996 RMK A01 T01020048  RH  069%=      5-min Rain = 0
KWA1 131450Z 24011KT 10/05 A2996 RMK A01 T01030049  RH  069%=      5-min Rain = 0
KWA1 131451Z 24012KT 10/05 A2996 RMK A01 T01040048  RH  068%=      5-min Rain = 0
KWA1 131452Z 24011KT 10/05 A2996 RMK A01 T01040049  RH  069%=      5-min Rain = 0
KWA1 131453Z 25011KT 11/05 A2997 RMK A01 T01050049  RH  068%=      5-min Rain = 0
KWA1 131454Z 24012KT 11/05 A2997 RMK A01 T01060050  RH  068%=      5-min Rain = 0
KWA1 131455Z 25011KT 11/05 A2997 RMK A01 T01070049  RH  067%=      5-min Rain = 0
KWA1 131456Z 25011KT 11/05 A2997 RMK A01 T01070049  RH  067%=      5-min Rain = 0
KWA1 131457Z 24010KT 11/05 A2997 RMK A01 T01080050  RH  067%=      5-min Rain = 0
KWA1 131458Z 25010KT 11/05 A2997 RMK A01 T01090049  RH  067%=      5-min Rain = 0
KWA1 131459Z 25010KT 11/05 A2997 RMK A01 T01100051  RH  067%=      5-min Rain = 0
KWA1 131500Z 24010KT 11/05 A2997 RMK A01 T01100051  RH  067%=      5-min Rain = 0
KWA1 131501Z 25010KT 11/05 A2997 RMK A01 T01100051  RH  067%=      5-min Rain = 0
KWA1 131502Z 25010KT 11/05 A2997 RMK A01 T01100053  RH  068%=      5-min Rain = 0
KWA1 131503Z 25011KT 11/05 A2997 RMK A01 T01100051  RH  067%=      5-min Rain = 0
KWA1 131504Z 25009KT 11/05 A2998 RMK A01 T01100050  RH  067%=      5-min Rain = 0
KWA1 131505Z 25009KT 11/05 A2998 RMK A01 T01110052  RH  067%=      5-min Rain = 0
KWA1 131506Z 25008KT 11/05 A2998 RMK A01 T01120052  RH  066%=      5-min Rain = 0
KWA1 131507Z 25008KT 11/05 A2998 RMK A01 T01130053  RH  066%=      5-min Rain = 0
KWA1 131508Z 25010KT 11/05 A2998 RMK A01 T01140051  RH  065%=      5-min Rain = 0
KWA1 131509Z 25009KT 12/05 A2997 RMK A01 T01150050  RH  065%=      5-min Rain = 0
KWA1 131510Z 25010KT 12/05 A2997 RMK A01 T01150051  RH  065%=      5-min Rain = 0
KWA1 131511Z 25009KT 12/05 A2997 RMK A01 T01160050  RH  064%=      5-min Rain = 0
KWA1 131512Z 25010KT 12/05 A2997 RMK A01 T01160051  RH  064%=      5-min Rain = 0
KWA1 131513Z 25009KT 12/05 A2997 RMK A01 T01170051  RH  064%=      5-min Rain = 0
KWA1 131514Z 25010KT 12/05 A2998 RMK A01 T01170050  RH  063%=      5-min Rain = 0
KWA1 131515Z 25010KT 12/05 A2998 RMK A01 T01180052  RH  064%=      5-min Rain = 0
KWA1 131516Z 25010KT 12/05 A2998 RMK A01 T01190050  RH  063%=      5-min Rain = 0
KWA1 131517Z 25009KT 12/05 A2998 RMK A01 T01190051  RH  063%=      5-min Rain = 0
KWA1 131518Z 25009KT 12/05 A2998 RMK A01 T01190051  RH  063%=      5-min Rain = 0
KWA1 131519Z 25009KT 12/05 A2998 RMK A01 T01200052  RH  063%=      5-min Rain = 0
KWA1 131520Z 25009KT 12/05 A2998 RMK A01 T01200052  RH  063%=      5-min Rain = 0
KWA1 131521Z 26010KT 12/05 A2998 RMK A01 T01210050  RH  062%=      5-min Rain = 0
KWA1 131522Z 25010KT 12/05 A2998 RMK A01 T01210050  RH  062%=      5-min Rain = 0
KWA1 131523Z 26010KT 12/05 A2998 RMK A01 T01220051  RH  062%=      5-min Rain = 0
KWA1 131524Z 26009KT 12/05 A2998 RMK A01 T01220052  RH  062%=      5-min Rain = 0
KWA1 131525Z 25009KT 12/05 A2998 RMK A01 T01230052  RH  062%=      5-min Rain = 0
KWA1 131526Z 25010KT 12/05 A2998 RMK A01 T01230053  RH  062%=      5-min Rain = 0
KWA1 131527Z 26009KT 12/05 A2998 RMK A01 T01240053  RH  062%=      5-min Rain = 0
KWA1 131528Z 26011KT 12/05 A2999 RMK A01 T01240054  RH  062%=      5-min Rain = 0
KWA1 131529Z 26012KT 13/05 A2999 RMK A01 T01250052  RH  061%=      5-min Rain = 0
KWA1 131530Z 25009KT 13/05 A2999 RMK A01 T01250052  RH  061%=      5-min Rain = 0
KWA1 131531Z 26012KT 13/05 A2999 RMK A01 T01260053  RH  061%=      5-min Rain = 0
KWA1 131532Z 26013KT 13/05 A2998 RMK A01 T01270048  RH  059%=      5-min Rain = 0
KWA1 131533Z 26012KT 13/05 A2998 RMK A01 T01260048  RH  059%=      5-min Rain = 0
KWA1 131534Z 26010KT 13/05 A2999 RMK A01 T01260050  RH  060%=      5-min Rain = 0
KWA1 131535Z 26010KT 13/05 A2999 RMK A01 T01270054  RH  061%=      5-min Rain = 0
KWA1 131536Z 26012KT 13/05 A2999 RMK A01 T01280050  RH  059%=      5-min Rain = 0
KWA1 131537Z 26012KT 13/05 A2999 RMK A01 T01280049  RH  059%=      5-min Rain = 0
KWA1 131538Z 26012KT 13/05 A2999 RMK A01 T01280050  RH  059%=      5-min Rain = 0
KWA1 131539Z 26012KT 13/05 A2999 RMK A01 T01280051  RH  060%=      5-min Rain = 0
KWA1 131540Z 25012KT 13/05 A2999 RMK A01 T01280051  RH  059%=      5-min Rain = 0
KWA1 131541Z 26011KT 13/05 A2999 RMK A01 T01280051  RH  059%=      5-min Rain = 0
KWA1 131542Z 26009KT 13/06 A2999 RMK A01 T01290055  RH  061%=      5-min Rain = 0
KWA1 131543Z 25012KT 13/05 A2999 RMK A01 T01300052  RH  059%=      5-min Rain = 0
KWA1 131544Z 26013KT 13/05 A30 RMK A01 T01300051  RH  059%=      5-min Rain = 0
KWA1 131545Z 26011KT 13/05 A30 RMK A01 T01290052  RH  059%=      5-min Rain = 0
KWA1 131546Z 27011KT 13/05 A2999 RMK A01 T01290053  RH  060%=      5-min Rain = 0
KWA1 131547Z 26010KT 13/06 A2999 RMK A01 T01290055  RH  061%=      5-min Rain = 0
KWA1 131548Z 26011KT 13/06 A2999 RMK A01 T01300055  RH  060%=      5-min Rain = 0
KWA1 131549Z 26010KT 13/06 A2999 RMK A01 T01310057  RH  061%=      5-min Rain = 0
KWA1 131550Z 26010KT 13/06 A2999 RMK A01 T01320057  RH  061%=      5-min Rain = 0
KWA1 131551Z 27011KT 13/05 A2999 RMK A01 T01320054  RH  059%=      5-min Rain = 0
KWA1 131552Z 27012KT 13/05 A2999 RMK A01 T01320054  RH  059%=      5-min Rain = 0
KWA1 131553Z 27010KT 13/06 A2999 RMK A01 T01320056  RH  060%=      5-min Rain = 0
KWA1 131554Z 27011KT 13/05 A2999 RMK A01 T01320052  RH  059%=      5-min Rain = 0
KWA1 131555Z 26010KT 13/05 A30 RMK A01 T01310054  RH  059%=      5-min Rain = 0
KWA1 131556Z 27010KT 13/06 A30 RMK A01 T01330057  RH  060%=      5-min Rain = 0
KWA1 131557Z 27012KT 13/06 A30 RMK A01 T01330057  RH  060%=      5-min Rain = 0
KWA1 131558Z 27012KT 13/05 A30 RMK A01 T01340054  RH  059%=      5-min Rain = 0
KWA1 131559Z 27011KT 13/06 A30 RMK A01 T01330057  RH  060%=      5-min Rain = 0
KWA1 131600Z 26010KT 13/06 A2999 RMK A01 T01330058  RH  060%=      5-min Rain = 0
KWA1 131601Z 27013KT 13/05 A2999 RMK A01 T01340053  RH  058%=      5-min Rain = 0
KWA1 131602Z 26010KT 13/05 A2999 RMK A01 T01340054  RH  059%=      5-min Rain = 0
KWA1 131603Z 26010KT 13/06 A2999 RMK A01 T01340058  RH  060%=      5-min Rain = 0
KWA1 131604Z 26011KT 14/06 A2999 RMK A01 T01360060  RH  060%=      5-min Rain = 0
KWA1 131605Z 26012KT 14/06 A2999 RMK A01 T01360057  RH  059%=      5-min Rain = 0
KWA1 131606Z 26011KT 14/06 A2999 RMK A01 T01360055  RH  058%=      5-min Rain = 0
KWA1 131607Z 27011KT 14/06 A2999 RMK A01 T01360058  RH  059%=      5-min Rain = 0
KWA1 131608Z 26014KT 14/06 A2999 RMK A01 T01370056  RH  058%=      5-min Rain = 0
KWA1 131609Z 27011KT 14/06 A2999 RMK A01 T01370055  RH  058%=      5-min Rain = 0
KWA1 131610Z 26013KT 14/06 A2999 RMK A01 T01370056  RH  058%=      5-min Rain = 0
KWA1 131611Z 26014KT 14/06 A2999 RMK A01 T01370055  RH  058%=      5-min Rain = 0
KWA1 131612Z 26013KT 14/05 A2999 RMK A01 T01360053  RH  057%=      5-min Rain = 0
KWA1 131613Z 27013KT 14/06 A2999 RMK A01 T01360055  RH  058%=      5-min Rain = 0
KWA1 131614Z 27012KT 14/06 A2999 RMK A01 T01360056  RH  058%=      5-min Rain = 0
KWA1 131615Z 26012KT 14/06 A2999 RMK A01 T01370055  RH  058%=      5-min Rain = 0
KWA1 131616Z 27011KT 14/05 A2999 RMK A01 T01380053  RH  057%=      5-min Rain = 0
KWA1 131617Z 27013KT 14/06 A2999 RMK A01 T01390058  RH  058%=      5-min Rain = 0
KWA1 131618Z 27012KT 14/06 A2999 RMK A01 T01400057  RH  058%=      5-min Rain = 0
KWA1 131619Z 27012KT 14/06 A2999 RMK A01 T01400057  RH  057%=      5-min Rain = 0
KWA1 131620Z 27010KT 14/06 A2999 RMK A01 T01400060  RH  058%=      5-min Rain = 0
KWA1 131621Z 26011KT 14/06 A2999 RMK A01 T01410061  RH  058%=      5-min Rain = 0
KWA1 131622Z 27011KT 14/06 A2999 RMK A01 T01420059  RH  057%=      5-min Rain = 0
KWA1 131623Z 26012KT 14/06 A2999 RMK A01 T01430062  RH  059%=      5-min Rain = 0
KWA1 131624Z 26011KT 14/06 A2999 RMK A01 T01430058  RH  057%=      5-min Rain = 0
KWA1 131625Z 27010KT 14/06 A2999 RMK A01 T01430060  RH  057%=      5-min Rain = 0
KWA1 131626Z 26011KT 14/06 A2999 RMK A01 T01440062  RH  058%=      5-min Rain = 0
KWA1 131627Z 26014KT 15/06 A2999 RMK A01 T01450058  RH  056%=      5-min Rain = 0
KWA1 131628Z 26012KT 15/05 A2999 RMK A01 T01450054  RH  055%=      5-min Rain = 0
KWA1 131629Z 26012KT 15/06 A2999 RMK A01 T01450057  RH  056%=      5-min Rain = 0
KWA1 131630Z 26010KT 15/06 A2998 RMK A01 T01450057  RH  055%=      5-min Rain = 0
KWA1 131631Z 26011KT 15/06 A2998 RMK A01 T01460059  RH  056%=      5-min Rain = 0
KWA1 131632Z 26011KT 15/06 A2998 RMK A01 T01470061  RH  056%=      5-min Rain = 0
KWA1 131633Z 26009KT 15/06 A2998 RMK A01 T01480062  RH  056%=      5-min Rain = 0
KWA1 131634Z 27011KT 15/06 A2999 RMK A01 T01490058  RH  055%=      5-min Rain = 0
KWA1 131635Z 27009KT 15/06 A2999 RMK A01 T01490061  RH  056%=      5-min Rain = 0
KWA1 131636Z 27012KT 15/06 A2999 RMK A01 T01500062  RH  056%=      5-min Rain = 0
KWA1 131637Z 26013KT 15/06 A2999 RMK A01 T01500057  RH  054%=      5-min Rain = 0
KWA1 131638Z 26013KT 15/06 A2999 RMK A01 T01490057  RH  054%=      5-min Rain = 0
KWA1 131639Z 27011KT 15/06 A2999 RMK A01 T01500060  RH  055%=      5-min Rain = 0
KWA1 131640Z 26012KT 15/06 A2999 RMK A01 T01510060  RH  055%=      5-min Rain = 0
KWA1 131641Z 27012KT 15/06 A2999 RMK A01 T01510057  RH  054%=      5-min Rain = 0
KWA1 131642Z 26011KT 15/06 A2999 RMK A01 T01510057  RH  054%=      5-min Rain = 0
KWA1 131643Z 26012KT 15/06 A2999 RMK A01 T01510060  RH  054%=      5-min Rain = 0
KWA1 131644Z 26011KT 15/06 A2999 RMK A01 T01520057  RH  053%=      5-min Rain = 0
KWA1 131645Z 26010KT 15/05 A2999 RMK A01 T01520054  RH  052%=      5-min Rain = 0
KWA1 131646Z 26007KT 15/06 A2999 RMK A01 T01520059  RH  054%=      5-min Rain = 0
KWA1 131647Z 26009KT 15/06 A2999 RMK A01 T01540060  RH  053%=      5-min Rain = 0
KWA1 131648Z 26010KT 16/06 A2999 RMK A01 T01560059  RH  052%=      5-min Rain = 0
KWA1 131649Z 25011KT 16/06 A2999 RMK A01 T01560058  RH  052%=      5-min Rain = 0
KWA1 131650Z 26011KT 16/06 A2999 RMK A01 T01560059  RH  052%=      5-min Rain = 0
KWA1 131651Z 26011KT 16/06 A2999 RMK A01 T01570057  RH  052%=      5-min Rain = 0
KWA1 131652Z 26010KT 16/06 A2998 RMK A01 T01570060  RH  052%=      5-min Rain = 0
KWA1 131653Z 26011KT 16/06 A2998 RMK A01 T01580060  RH  052%=      5-min Rain = 0
KWA1 131654Z 27011KT 16/06 A2998 RMK A01 T01590060  RH  052%=      5-min Rain = 0
KWA1 131655Z 27009KT 16/06 A2998 RMK A01 T01590062  RH  052%=      5-min Rain = 0
KWA1 131656Z 27008G13KT 16/07 A2998 RMK A01 T01610068  RH  054%=      5-min Rain = 0
KWA1 131657Z 26012KT 16/06 A2998 RMK A01 T01630064  RH  052%=      5-min Rain = 0
KWA1 131658Z 27010KT 16/06 A2998 RMK A01 T01630063  RH  052%=      5-min Rain = 0
KWA1 131659Z 27010KT 16/06 A2998 RMK A01 T01630062  RH  051%=      5-min Rain = 0
KWA1 131700Z 27011KT 16/06 A2998 RMK A01 T01640060  RH  050%=      5-min Rain = 0
KWA1 131701Z 27014KT 16/06 A2998 RMK A01 T01640060  RH  050%=      5-min Rain = 0
KWA1 131702Z 27012KT 16/06 A2998 RMK A01 T01640057  RH  049%=      5-min Rain = 0
KWA1 131703Z 26010KT 16/06 A2998 RMK A01 T01640056  RH  049%=      5-min Rain = 0
KWA1 131704Z 26010KT 16/06 A2998 RMK A01 T01640063  RH  051%=      5-min Rain = 0
KWA1 131705Z 26011KT 17/06 A2998 RMK A01 T01650061  RH  050%=      5-min Rain = 0
KWA1 131706Z 26010KT 17/06 A2998 RMK A01 T01650057  RH  049%=      5-min Rain = 0
KWA1 131707Z 27009KT 17/06 A2998 RMK A01 T01650058  RH  049%=      5-min Rain = 0
KWA1 131708Z 27010KT 17/07 A2998 RMK A01 T01660066  RH  052%=      5-min Rain = 0
KWA1 131709Z 27010KT 17/07 A2998 RMK A01 T01680066  RH  051%=      5-min Rain = 0
KWA1 131710Z 27011KT 17/07 A2997 RMK A01 T01710065  RH  050%=      5-min Rain = 0
KWA1 131711Z 27012KT 17/06 A2997 RMK A01 T01720057  RH  046%=      5-min Rain = 0
KWA1 131712Z 28013KT 17/05 A2997 RMK A01 T01720053  RH  045%=      5-min Rain = 0
KWA1 131713Z 28013KT 17/05 A2997 RMK A01 T01730051  RH  045%=      5-min Rain = 0
KWA1 131714Z 28011KT 17/05 A2997 RMK A01 T01730054  RH  045%=      5-min Rain = 0
KWA1 131715Z 27013KT 17/06 A2997 RMK A01 T01740058  RH  046%=      5-min Rain = 0
KWA1 131716Z 29012KT 18/06 A2997 RMK A01 T01750057  RH  046%=      5-min Rain = 0
KWA1 131717Z 29013KT 18/06 A2997 RMK A01 T01760058  RH  046%=      5-min Rain = 0
KWA1 131718Z 29013KT 18/06 A2997 RMK A01 T01760056  RH  045%=      5-min Rain = 0
KWA1 131719Z 28013KT 18/05 A2997 RMK A01 T01760050  RH  043%=      5-min Rain = 0
KWA1 131720Z 29013KT 18/05 A2997 RMK A01 T01770052  RH  044%=      5-min Rain = 0
KWA1 131721Z 29013KT 18/05 A2997 RMK A01 T01800054  RH  044%=      5-min Rain = 0
KWA1 131722Z 29015KT 18/05 A2997 RMK A01 T01820049  RH  042%=      5-min Rain = 0
KWA1 131723Z 28012G17KT 18/05 A2997 RMK A01 T01820049  RH  041%=      5-min Rain = 0
KWA1 131724Z 27012G17KT 18/05 A2997 RMK A01 T01820051  RH  042%=      5-min Rain = 0
KWA1 131725Z 28015KT 18/05 A2997 RMK A01 T01830046  RH  040%=      5-min Rain = 0
KWA1 131726Z 29012KT 18/05 A2997 RMK A01 T01820046  RH  041%=      5-min Rain = 0
KWA1 131727Z 28013KT 18/05 A2996 RMK A01 T01820049  RH  042%=      5-min Rain = 0
KWA1 131728Z 28014KT 18/05 A2996 RMK A01 T01830047  RH  041%=      5-min Rain = 0
KWA1 131729Z 28014KT 18/05 A2996 RMK A01 T01840047  RH  041%=      5-min Rain = 0
KWA1 131730Z 29015KT 18/04 A2996 RMK A01 T01840040  RH  039%=      5-min Rain = 0
KWA1 131731Z 30014KT 18/05 A2995 RMK A01 T01830045  RH  040%=      5-min Rain = 0
KWA1 131732Z 29014KT 18/05 A2995 RMK A01 T01830046  RH  040%=      5-min Rain = 0
KWA1 131733Z 28014KT 18/05 A2995 RMK A01 T01840047  RH  040%=      5-min Rain = 0
KWA1 131734Z 28014KT 19/05 A2995 RMK A01 T01850047  RH  040%=      5-min Rain = 0
KWA1 131735Z 28017KT 19/04 A2995 RMK A01 T01860043  RH  039%=      5-min Rain = 0
KWA1 131736Z 29014KT 19/05 A2995 RMK A01 T01850045  RH  039%=      5-min Rain = 0
KWA1 131737Z 29014KT 19/05 A2995 RMK A01 T01850049  RH  041%=      5-min Rain = 0
KWA1 131738Z 30016KT 19/04 A2995 RMK A01 T01860044  RH  039%=      5-min Rain = 0
KWA1 131739Z 29016G21KT 19/04 A2995 RMK A01 T01860044  RH  039%=      5-min Rain = 0
KWA1 131740Z 28013KT 19/05 A2995 RMK A01 T01870046  RH  039%=      5-min Rain = 0
KWA1 131741Z 28013G19KT 19/05 A2995 RMK A01 T01880051  RH  040%=      5-min Rain = 0
KWA1 131742Z 29016KT 19/05 A2995 RMK A01 T01890045  RH  038%=      5-min Rain = 0
KWA1 131743Z 29016KT 19/04 A2995 RMK A01 T01880041  RH  038%=      5-min Rain = 0
KWA1 131744Z 28016KT 19/04 A2995 RMK A01 T01880043  RH  038%=      5-min Rain = 0
KWA1 131745Z 29014KT 19/04 A2995 RMK A01 T01880043  RH  038%=      5-min Rain = 0
KWA1 131746Z 28016KT 19/04 A2995 RMK A01 T01890042  RH  038%=      5-min Rain = 0
KWA1 131747Z 29015KT 19/05 A2995 RMK A01 T01900048  RH  039%=      5-min Rain = 0
KWA1 131748Z 30015KT 19/05 A2995 RMK A01 T01900046  RH  038%=      5-min Rain = 0
KWA1 131749Z 30019KT 19/04 A2995 RMK A01 T01910044  RH  038%=      5-min Rain = 0
KWA1 131750Z 29017KT 19/04 A2995 RMK A01 T01910041  RH  037%=      5-min Rain = 0
KWA1 131751Z 29014G19KT 19/05 A2995 RMK A01 T01900046  RH  039%=      5-min Rain = 0
KWA1 131752Z 29016KT 19/05 A2995 RMK A01 T01920049  RH  039%=      5-min Rain = 0
KWA1 131753Z 29013KT 19/05 A2995 RMK A01 T01930047  RH  038%=      5-min Rain = 0
KWA1 131754Z 30013KT 19/05 A2995 RMK A01 T01930048  RH  038%=      5-min Rain = 0
KWA1 131755Z 30016KT 19/05 A2995 RMK A01 T01940049  RH  038%=      5-min Rain = 0
KWA1 131756Z 30013KT 20/05 A2995 RMK A01 T01950049  RH  038%=      5-min Rain = 0
KWA1 131757Z 29013KT 20/05 A2995 RMK A01 T01960052  RH  039%=      5-min Rain = 0
KWA1 131758Z 30016KT 20/05 A2995 RMK A01 T01970049  RH  038%=      5-min Rain = 0
KWA1 131759Z 30016G21KT 20/05 A2995 RMK A01 T01970046  RH  037%=      5-min Rain = 0
KWA1 131800Z 29016KT 20/05 A2994 RMK A01 T01960046  RH  037%=      5-min Rain = 0
KWA1 131801Z 30017KT 20/04 A2994 RMK A01 T01960042  RH  036%=      5-min Rain = 0
KWA1 131802Z 30014KT 20/05 A2995 RMK A01 T01970046  RH  037%=      5-min Rain = 0
KWA1 131803Z 29015KT 20/05 A2995 RMK A01 T01980046  RH  037%=      5-min Rain = 0
KWA1 131804Z 29016KT 20/04 A2994 RMK A01 T01980042  RH  036%=      5-min Rain = 0
KWA1 131805Z 30014KT 20/04 A2994 RMK A01 T01970044  RH  036%=      5-min Rain = 0
KWA1 131806Z 30015KT 20/05 A2994 RMK A01 T01980045  RH  037%=      5-min Rain = 0
KWA1 131807Z 29015KT 20/04 A2994 RMK A01 T01980043  RH  036%=      5-min Rain = 0
KWA1 131808Z 30015KT 20/04 A2994 RMK A01 T01990043  RH  036%=      5-min Rain = 0
KWA1 131809Z 29014KT 20/04 A2994 RMK A01 T01990044  RH  036%=      5-min Rain = 0
KWA1 131810Z 29014KT 20/05 A2994 RMK A01 T02000046  RH  036%=      5-min Rain = 0
KWA1 131811Z 29014KT 20/04 A2994 RMK A01 T02000042  RH  035%=      5-min Rain = 0
KWA1 131812Z 29014KT 20/05 A2994 RMK A01 T02000047  RH  036%=      5-min Rain = 0
KWA1 131813Z 29013KT 20/04 A2994 RMK A01 T02010040  RH  035%=      5-min Rain = 0
KWA1 131814Z 29013KT 20/04 A2994 RMK A01 T02000043  RH  036%=      5-min Rain = 0
KWA1 131815Z 27013KT 20/04 A2994 RMK A01 T02010044  RH  036%=      5-min Rain = 0
KWA1 131816Z 27013KT 20/05 A2994 RMK A01 T02020046  RH  036%=      5-min Rain = 0
KWA1 131817Z 28012KT 20/04 A2994 RMK A01 T02030043  RH  035%=      5-min Rain = 0
KWA1 131818Z 28013KT 20/04 A2993 RMK A01 T02020044  RH  035%=      5-min Rain = 0
KWA1 131819Z 28011KT 20/05 A2993 RMK A01 T02030047  RH  036%=      5-min Rain = 0
KWA1 131820Z 29013KT 20/04 A2993 RMK A01 T02030043  RH  035%=      5-min Rain = 0
KWA1 131821Z 28011KT 20/05 A2994 RMK A01 T02040047  RH  036%=      5-min Rain = 0
KWA1 131822Z 28012KT 20/04 A2994 RMK A01 T02040044  RH  035%=      5-min Rain = 0
KWA1 131823Z 27013KT 20/04 A2994 RMK A01 T02040043  RH  035%=      5-min Rain = 0
KWA1 131824Z 27012KT 20/05 A2994 RMK A01 T02040045  RH  035%=      5-min Rain = 0
KWA1 131825Z 29009KT 21/05 A2994 RMK A01 T02050048  RH  036%=      5-min Rain = 0
KWA1 131826Z 28011KT 21/05 A2994 RMK A01 T02060046  RH  035%=      5-min Rain = 0
KWA1 131827Z 28012KT 21/05 A2994 RMK A01 T02070047  RH  035%=      5-min Rain = 0
KWA1 131828Z 29012KT 21/04 A2994 RMK A01 T02080043  RH  034%=      5-min Rain = 0
KWA1 131829Z 29013KT 21/04 A2994 RMK A01 T02080038  RH  033%=      5-min Rain = 0
KWA1 131830Z 29013KT 21/04 A2994 RMK A01 T02070041  RH  034%=      5-min Rain = 0
KWA1 131831Z 28011KT 21/04 A2994 RMK A01 T02070040  RH  033%=      5-min Rain = 0
KWA1 131832Z 30011KT 21/04 A2994 RMK A01 T02080043  RH  034%=      5-min Rain = 0
KWA1 131833Z 29012KT 21/04 A2994 RMK A01 T02100041  RH  033%=      5-min Rain = 0
KWA1 131834Z 29012KT 21/04 A2993 RMK A01 T02100039  RH  032%=      5-min Rain = 0
KWA1 131835Z 31012KT 21/04 A2993 RMK A01 T02110043  RH  033%=      5-min Rain = 0
KWA1 131836Z 30015KT 21/04 A2993 RMK A01 T02120040  RH  032%=      5-min Rain = 0
KWA1 131837Z 30013KT 21/04 A2993 RMK A01 T02120037  RH  032%=      5-min Rain = 0
KWA1 131838Z 31016KT 21/04 A2993 RMK A01 T02120038  RH  032%=      5-min Rain = 0
KWA1 131839Z 31013KT 21/04 A2992 RMK A01 T02120036  RH  031%=      5-min Rain = 0
KWA1 131840Z 31014KT 21/04 A2992 RMK A01 T02120040  RH  032%=      5-min Rain = 0
KWA1 131841Z 31013KT 21/04 A2992 RMK A01 T02120036  RH  031%=      5-min Rain = 0
KWA1 131842Z 31013KT 21/03 A2992 RMK A01 T02120034  RH  031%=      5-min Rain = 0
KWA1 131843Z 31012KT 21/03 A2992 RMK A01 T02120034  RH  031%=      5-min Rain = 0
KWA1 131844Z 31012KT 21/04 A2992 RMK A01 T02120037  RH  032%=      5-min Rain = 0
KWA1 131845Z 31012KT 21/04 A2992 RMK A01 T02120036  RH  031%=      5-min Rain = 0
KWA1 131846Z 31011KT 21/03 A2992 RMK A01 T02130033  RH  031%=      5-min Rain = 0
KWA1 131847Z 29008KT 21/04 A2991 RMK A01 T02130039  RH  032%=      5-min Rain = 0
KWA1 131848Z 31011KT 21/05 A2991 RMK A01 T02140046  RH  033%=      5-min Rain = 0
KWA1 131849Z 31012KT 22/04 A2991 RMK A01 T02160039  RH  031%=      5-min Rain = 0
KWA1 131850Z 31012KT 22/04 A2991 RMK A01 T02160039  RH  031%=      5-min Rain = 0
KWA1 131851Z 30012KT 22/04 A2991 RMK A01 T02160039  RH  031%=      5-min Rain = 0
KWA1 131852Z 30010KT 22/04 A2992 RMK A01 T02170040  RH  031%=      5-min Rain = 0
KWA1 131853Z 30014KT 22/04 A2992 RMK A01 T02180041  RH  031%=      5-min Rain = 0
KWA1 131854Z 31013KT 22/04 A2992 RMK A01 T02180039  RH  031%=      5-min Rain = 0
KWA1 131855Z 31014KT 22/04 A2992 RMK A01 T02180038  RH  031%=      5-min Rain = 0
KWA1 131856Z 31014KT 22/04 A2992 RMK A01 T02180041  RH  031%=      5-min Rain = 0
KWA1 131857Z 31015KT 22/03 A2992 RMK A01 T02180033  RH  030%=      5-min Rain = 0
KWA1 131858Z 31014KT 22/04 A2991 RMK A01 T02170035  RH  030%=      5-min Rain = 0
KWA1 131859Z 32015KT 22/03 A2991 RMK A01 T02170033  RH  030%=      5-min Rain = 0
KWA1 131900Z 32014KT 22/03 A2991 RMK A01 T02160031  RH  030%=      5-min Rain = 0
KWA1 131901Z 31013KT 22/03 A2991 RMK A01 T02150033  RH  030%=      5-min Rain = 0
KWA1 131902Z 32013KT 22/04 A299 RMK A01 T02150035  RH  031%=      5-min Rain = 0
KWA1 131903Z 30012KT 22/04 A299 RMK A01 T02150035  RH  031%=      5-min Rain = 0
KWA1 131904Z 30013KT 22/04 A299 RMK A01 T02160038  RH  031%=      5-min Rain = 0
KWA1 131905Z 29015KT 22/04 A299 RMK A01 T02170037  RH  031%=      5-min Rain = 0
KWA1 131906Z 30016KT 22/04 A299 RMK A01 T02180037  RH  031%=      5-min Rain = 0
KWA1 131907Z 30017KT 22/04 A299 RMK A01 T02190038  RH  031%=      5-min Rain = 0
KWA1 131908Z 31013KT 22/03 A299 RMK A01 T02190034  RH  030%=      5-min Rain = 0
KWA1 131909Z 31011KT 22/04 A299 RMK A01 T02190038  RH  031%=      5-min Rain = 0
KWA1 131910Z 30012KT 22/04 A299 RMK A01 T02210042  RH  031%=      5-min Rain = 0
KWA1 131911Z 31015KT 22/04 A299 RMK A01 T02220039  RH  030%=      5-min Rain = 0
KWA1 131912Z 30014KT 22/04 A299 RMK A01 T02220036  RH  029%=      5-min Rain = 0
KWA1 131913Z 31014KT 22/04 A299 RMK A01 T02220037  RH  030%=      5-min Rain = 0
KWA1 131914Z 31016KT 22/04 A299 RMK A01 T02220040  RH  031%=      5-min Rain = 0
KWA1 131915Z 31016KT 22/04 A299 RMK A01 T02230039  RH  030%=      5-min Rain = 0
KWA1 131916Z 31015KT 22/04 A299 RMK A01 T02240041  RH  030%=      5-min Rain = 0
KWA1 131917Z 31017KT 23/04 A299 RMK A01 T02250041  RH  030%=      5-min Rain = 0
KWA1 131918Z 32015KT 23/04 A299 RMK A01 T02260040  RH  030%=      5-min Rain = 0
KWA1 131919Z 30016G21KT 23/04 A299 RMK A01 T02250040  RH  030%=      5-min Rain = 0
KWA1 131920Z 30019KT 23/03 A299 RMK A01 T02260034  RH  029%=      5-min Rain = 0
KWA1 131921Z 31017KT 23/04 A299 RMK A01 T02250035  RH  029%=      5-min Rain = 0
KWA1 131922Z 30015G23KT 23/04 A299 RMK A01 T02250038  RH  029%=      5-min Rain = 0
KWA1 131923Z 30019KT 23/04 A299 RMK A01 T02250038  RH  029%=      5-min Rain = 0
KWA1 131924Z 30018KT 23/04 A299 RMK A01 T02250035  RH  029%=      5-min Rain = 0
KWA1 131925Z 30013KT 23/04 A2989 RMK A01 T02250038  RH  030%=      5-min Rain = 0
KWA1 131926Z 32014KT 23/04 A2989 RMK A01 T02260039  RH  030%=      5-min Rain = 0
KWA1 131927Z 32015KT 23/04 A2989 RMK A01 T02260038  RH  029%=      5-min Rain = 0
KWA1 131928Z 31017KT 23/03 A2989 RMK A01 T02260034  RH  029%=      5-min Rain = 0
KWA1 131929Z 31014KT 23/04 A2989 RMK A01 T02250037  RH  029%=      5-min Rain = 0
KWA1 131930Z 32014KT 23/04 A2989 RMK A01 T02250037  RH  029%=      5-min Rain = 0
KWA1 131931Z 32014G19KT 23/04 A299 RMK A01 T02260041  RH  030%=      5-min Rain = 0
KWA1 131932Z 31019KT 23/04 A299 RMK A01 T02270039  RH  029%=      5-min Rain = 0
KWA1 131933Z 31016KT 23/04 A299 RMK A01 T02270035  RH  029%=      5-min Rain = 0
KWA1 131934Z 32012KT 23/04 A299 RMK A01 T02270044  RH  030%=      5-min Rain = 0
KWA1 131935Z 31015G20KT 23/04 A299 RMK A01 T02290044  RH  030%=      5-min Rain = 0
KWA1 131936Z 30014KT 23/05 A299 RMK A01 T02310047  RH  030%=      5-min Rain = 0
KWA1 131937Z 30018G23KT 23/04 A2989 RMK A01 T02330043  RH  029%=      5-min Rain = 0
KWA1 131938Z 30018KT 23/04 A2989 RMK A01 T02310037  RH  028%=      5-min Rain = 0
KWA1 131939Z 31017KT 23/04 A2989 RMK A01 T02290039  RH  029%=      5-min Rain = 0
KWA1 131940Z 31018KT 23/04 A2989 RMK A01 T02290037  RH  029%=      5-min Rain = 0
KWA1 131941Z 31018KT 23/04 A2989 RMK A01 T02280036  RH  028%=      5-min Rain = 0
KWA1 131942Z 32017KT 23/04 A2989 RMK A01 T02270036  RH  029%=      5-min Rain = 0
KWA1 131943Z 31017KT 23/03 A2989 RMK A01 T02270034  RH  028%=      5-min Rain = 0
KWA1 131944Z 31016KT 23/04 A2989 RMK A01 T02260036  RH  029%=      5-min Rain = 0
KWA1 131945Z 32013G18KT 23/04 A2989 RMK A01 T02250037  RH  029%=      5-min Rain = 0
KWA1 131946Z 32013KT 23/04 A2988 RMK A01 T02250036  RH  029%=      5-min Rain = 0
KWA1 131947Z 32014KT 23/04 A2988 RMK A01 T02260036  RH  029%=      5-min Rain = 0
KWA1 131948Z 31014KT 23/04 A2988 RMK A01 T02260036  RH  029%=      5-min Rain = 0
KWA1 131949Z 31013KT 23/04 A2988 RMK A01 T02270040  RH  029%=      5-min Rain = 0
KWA1 131950Z 32013KT 23/04 A2988 RMK A01 T02280039  RH  029%=      5-min Rain = 0
KWA1 131951Z 32015KT 23/04 A2988 RMK A01 T02280040  RH  029%=      5-min Rain = 0
KWA1 131952Z 32016KT 23/04 A2988 RMK A01 T02280035  RH  028%=      5-min Rain = 0
KWA1 131953Z 32014KT 23/04 A2988 RMK A01 T02270035  RH  028%=      5-min Rain = 0
KWA1 131954Z 32014KT 23/04 A2988 RMK A01 T02280040  RH  029%=      5-min Rain = 0
KWA1 131955Z 33013KT 23/04 A2988 RMK A01 T02280036  RH  029%=      5-min Rain = 0
KWA1 131956Z 33011KT 23/04 A2988 RMK A01 T02280038  RH  029%=      5-min Rain = 0
KWA1 131957Z 32010KT 23/04 A2988 RMK A01 T02280039  RH  029%=      5-min Rain = 0
KWA1 131958Z 32010KT 23/04 A2988 RMK A01 T02300043  RH  030%=      5-min Rain = 0
KWA1 131959Z 33011G16KT 23/04 A2988 RMK A01 T02300037  RH  028%=      5-min Rain = 0
KWA1 132000Z 32014KT 23/04 A2987 RMK A01 T02310040  RH  029%=      5-min Rain = 0
KWA1 132001Z 32013KT 23/04 A2987 RMK A01 T02310038  RH  028%=      5-min Rain = 0
KWA1 132002Z 33012KT 23/04 A2987 RMK A01 T02320043  RH  029%=      5-min Rain = 0
KWA1 132003Z 33013KT 23/04 A2987 RMK A01 T02320038  RH  028%=      5-min Rain = 0
KWA1 132004Z 32016KT 23/04 A2987 RMK A01 T02320037  RH  028%=      5-min Rain = 0
KWA1 132005Z 33013KT 23/04 A2987 RMK A01 T02320039  RH  028%=      5-min Rain = 0
KWA1 132006Z 31014KT 23/04 A2987 RMK A01 T02330039  RH  028%=      5-min Rain = 0
KWA1 132007Z 32011KT 23/03 A2986 RMK A01 T02330034  RH  027%=      5-min Rain = 0
KWA1 132008Z 32013KT 23/03 A2986 RMK A01 T02310033  RH  027%=      5-min Rain = 0
KWA1 132009Z 33013KT 23/04 A2986 RMK A01 T02310035  RH  028%=      5-min Rain = 0
KWA1 132010Z 33013KT 23/04 A2986 RMK A01 T02310037  RH  028%=      5-min Rain = 0
KWA1 132011Z 32011KT 23/04 A2986 RMK A01 T02310036  RH  028%=      5-min Rain = 0
KWA1 132012Z 32009KT 23/04 A2986 RMK A01 T02320040  RH  029%=      5-min Rain = 0
KWA1 132013Z 32011KT 23/04 A2986 RMK A01 T02340040  RH  028%=      5-min Rain = 0
KWA1 132014Z 32012KT 24/04 A2987 RMK A01 T02350036  RH  027%=      5-min Rain = 0
KWA1 132015Z 33016G21KT 23/04 A2986 RMK A01 T02340038  RH  028%=      5-min Rain = 0
KWA1 132016Z 32014G20KT 23/04 A2986 RMK A01 T02340039  RH  028%=      5-min Rain = 0
KWA1 132017Z 31013KT 24/04 A2986 RMK A01 T02350041  RH  028%=      5-min Rain = 0
KWA1 132018Z 31011KT 24/04 A2986 RMK A01 T02350037  RH  027%=      5-min Rain = 0
KWA1 132019Z 32014KT 24/04 A2986 RMK A01 T02350037  RH  028%=      5-min Rain = 0
KWA1 132020Z 32014G19KT 23/04 A2986 RMK A01 T02340038  RH  028%=      5-min Rain = 0
KWA1 132021Z 32013G18KT 23/04 A2986 RMK A01 T02340040  RH  028%=      5-min Rain = 0
KWA1 132022Z 31013KT 24/04 A2986 RMK A01 T02350038  RH  028%=      5-min Rain = 0
KWA1 132023Z 31010KT 24/04 A2986 RMK A01 T02350038  RH  028%=      5-min Rain = 0
KWA1 132024Z 32011KT 24/04 A2986 RMK A01 T02350042  RH  029%=      5-min Rain = 0
KWA1 132025Z 31012KT 24/04 A2986 RMK A01 T02360037  RH  027%=      5-min Rain = 0
KWA1 132026Z 31011KT 24/04 A2986 RMK A01 T02350039  RH  028%=      5-min Rain = 0
KWA1 132027Z 31011KT 24/04 A2986 RMK A01 T02360041  RH  028%=      5-min Rain = 0
KWA1 132028Z 32012KT 24/04 A2986 RMK A01 T02370038  RH  027%=      5-min Rain = 0
KWA1 132029Z 31010KT 24/04 A2986 RMK A01 T02350037  RH  027%=      5-min Rain = 0
KWA1 132030Z 31011KT 24/04 A2986 RMK A01 T02350040  RH  028%=      5-min Rain = 0
KWA1 132031Z 31011G16KT 24/04 A2986 RMK A01 T02360042  RH  028%=      5-min Rain = 0
KWA1 132032Z 31014KT 24/04 A2986 RMK A01 T02370038  RH  027%=      5-min Rain = 0
KWA1 132033Z 32012KT 24/04 A2986 RMK A01 T02380043  RH  028%=      5-min Rain = 0
KWA1 132034Z 32012KT 24/04 A2986 RMK A01 T02390038  RH  027%=      5-min Rain = 0
KWA1 132035Z 31014KT 24/04 A2986 RMK A01 T02370041  RH  028%=      5-min Rain = 0
KWA1 132036Z 31013KT 24/04 A2986 RMK A01 T02370039  RH  028%=      5-min Rain = 0
KWA1 132037Z 31015KT 24/04 A2986 RMK A01 T02370037  RH  027%=      5-min Rain = 0
KWA1 132038Z 31018KT 24/04 A2986 RMK A01 T02380036  RH  027%=      5-min Rain = 0
KWA1 132039Z 32016KT 24/04 A2986 RMK A01 T02390037  RH  027%=      5-min Rain = 0
KWA1 132040Z 31017KT 24/04 A2986 RMK A01 T02410040  RH  027%=      5-min Rain = 0
KWA1 132041Z 31018KT 24/04 A2986 RMK A01 T02430037  RH  026%=      5-min Rain = 0
KWA1 132042Z 31017KT 24/04 A2986 RMK A01 T02430037  RH  026%=      5-min Rain = 0
KWA1 132043Z 32015KT 24/04 A2986 RMK A01 T02430036  RH  026%=      5-min Rain = 0
KWA1 132044Z 31016KT 24/04 A2986 RMK A01 T02430037  RH  026%=      5-min Rain = 0
KWA1 132045Z 29014KT 24/04 A2986 RMK A01 T02440043  RH  027%=      5-min Rain = 0
KWA1 132046Z 29014KT 25/04 A2986 RMK A01 T02450041  RH  027%=      5-min Rain = 0
KWA1 132047Z 31014KT 25/04 A2986 RMK A01 T02450040  RH  026%=      5-min Rain = 0
KWA1 132048Z 31018KT 25/04 A2986 RMK A01 T02450038  RH  026%=      5-min Rain = 0
KWA1 132049Z 31020KT 24/04 A2986 RMK A01 T02440036  RH  026%=      5-min Rain = 0
KWA1 132050Z 30018KT 24/04 A2986 RMK A01 T02430036  RH  026%=      5-min Rain = 0
KWA1 132051Z 30019KT 24/04 A2986 RMK A01 T02430036  RH  026%=      5-min Rain = 0
KWA1 132052Z 30019KT 24/03 A2986 RMK A01 T02420029  RH  025%=      5-min Rain = 0
KWA1 132053Z 31016KT 24/03 A2986 RMK A01 T02410033  RH  026%=      5-min Rain = 0
KWA1 132054Z 31018KT 24/03 A2987 RMK A01 T02400033  RH  026%=      5-min Rain = 0
KWA1 132055Z 30015KT 24/04 A2986 RMK A01 T02400037  RH  027%=      5-min Rain = 0
KWA1 132056Z 29016KT 24/04 A2987 RMK A01 T02410037  RH  027%=      5-min Rain = 0
KWA1 132057Z 30014KT 24/04 A2986 RMK A01 T02400036  RH  027%=      5-min Rain = 0
KWA1 132058Z 30013KT 24/04 A2987 RMK A01 T02400039  RH  027%=      5-min Rain = 0
KWA1 132059Z 30014KT 24/04 A2987 RMK A01 T02390043  RH  028%=      5-min Rain = 0
KWA1 132100Z 30017G26KT 24/04 A2986 RMK A01 T02390041  RH  028%=      5-min Rain = 0
KWA1 132101Z 30022KT 24/03 A2986 RMK A01 T02390031  RH  026%=      5-min Rain = 0
KWA1 132102Z 29019G24KT 24/03 A2986 RMK A01 T02390030  RH  026%=      5-min Rain = 0
KWA1 132103Z 30020KT 24/03 A2986 RMK A01 T02400031  RH  026%=      5-min Rain = 0
KWA1 132104Z 30021G27KT 24/03 A2986 RMK A01 T02390032  RH  026%=      5-min Rain = 0
KWA1 132105Z 29021KT 24/03 A2986 RMK A01 T02390030  RH  026%=      5-min Rain = 0
KWA1 132106Z 30020KT 24/03 A2986 RMK A01 T02390031  RH  026%=      5-min Rain = 0
KWA1 132107Z 30019KT 24/03 A2986 RMK A01 T02390032  RH  026%=      5-min Rain = 0
KWA1 132108Z 30018KT 24/03 A2986 RMK A01 T02400030  RH  026%=      5-min Rain = 0
KWA1 132109Z 31019KT 24/03 A2986 RMK A01 T02400029  RH  025%=      5-min Rain = 0
KWA1 132110Z 30016KT 24/03 A2986 RMK A01 T02400033  RH  026%=      5-min Rain = 0
KWA1 132111Z 30017KT 24/03 A2986 RMK A01 T02400034  RH  026%=      5-min Rain = 0
KWA1 132112Z 30017KT 24/03 A2986 RMK A01 T02400030  RH  026%=      5-min Rain = 0
KWA1 132113Z 30013KT 24/03 A2986 RMK A01 T02400034  RH  026%=      5-min Rain = 0
KWA1 132114Z 30012KT 24/04 A2986 RMK A01 T02400040  RH  027%=      5-min Rain = 0
KWA1 132115Z 30014KT 24/04 A2986 RMK A01 T02410039  RH  027%=      5-min Rain = 0
KWA1 132116Z 30015KT 24/04 A2986 RMK A01 T02410039  RH  027%=      5-min Rain = 0
KWA1 132117Z 30015KT 24/04 A2986 RMK A01 T02410036  RH  026%=      5-min Rain = 0
KWA1 132118Z 30016KT 24/03 A2986 RMK A01 T02420034  RH  026%=      5-min Rain = 0
KWA1 132119Z 30015KT 24/04 A2986 RMK A01 T02420035  RH  026%=      5-min Rain = 0
KWA1 132120Z 30015KT 24/04 A2986 RMK A01 T02430037  RH  026%=      5-min Rain = 0
KWA1 132121Z 30017KT 24/03 A2986 RMK A01 T02440033  RH  025%=      5-min Rain = 0
KWA1 132122Z 29016KT 24/03 A2986 RMK A01 T02440033  RH  025%=      5-min Rain = 0
KWA1 132123Z 30017KT 24/03 A2986 RMK A01 T02440033  RH  025%=      5-min Rain = 0
KWA1 132124Z 29015KT 24/03 A2986 RMK A01 T02440034  RH  026%=      5-min Rain = 0
KWA1 132125Z 30014KT 24/04 A2986 RMK A01 T02430035  RH  026%=      5-min Rain = 0
KWA1 132126Z 29014G19KT 24/04 A2986 RMK A01 T02430037  RH  026%=      5-min Rain = 0
KWA1 132127Z 30013KT 24/04 A2986 RMK A01 T02430035  RH  026%=      5-min Rain = 0
KWA1 132128Z 30017G22KT 24/03 A2986 RMK A01 T02420034  RH  026%=      5-min Rain = 0
KWA1 132129Z 29020KT 24/03 A2986 RMK A01 T02410027  RH  025%=      5-min Rain = 0
KWA1 132130Z 30019KT 24/03 A2986 RMK A01 T02400027  RH  025%=      5-min Rain = 0
KWA1 132131Z 31019KT 24/03 A2986 RMK A01 T02400028  RH  025%=      5-min Rain = 0
KWA1 132132Z 31019KT 24/03 A2986 RMK A01 T02400026  RH  025%=      5-min Rain = 0
KWA1 132133Z 30016KT 24/03 A2986 RMK A01 T02390030  RH  026%=      5-min Rain = 0
KWA1 132134Z 31019KT 24/03 A2986 RMK A01 T02380029  RH  026%=      5-min Rain = 0
KWA1 132135Z 31019KT 24/02 A2986 RMK A01 T02380024  RH  025%=      5-min Rain = 0
KWA1 132136Z 31017KT 24/03 A2986 RMK A01 T02370025  RH  025%=      5-min Rain = 0
KWA1 132137Z 31013KT 24/03 A2986 RMK A01 T02370031  RH  026%=      5-min Rain = 0
KWA1 132138Z 31013KT 24/03 A2986 RMK A01 T02360033  RH  026%=      5-min Rain = 0
KWA1 132139Z 31012KT 24/04 A2986 RMK A01 T02360036  RH  027%=      5-min Rain = 0
KWA1 132140Z 31012KT 24/03 A2986 RMK A01 T02350034  RH  027%=      5-min Rain = 0
KWA1 132141Z 31012KT 23/04 A2986 RMK A01 T02340038  RH  028%=      5-min Rain = 0
KWA1 132142Z 30012KT 23/04 A2986 RMK A01 T02340035  RH  027%=      5-min Rain = 0
KWA1 132143Z 31015KT 23/03 A2986 RMK A01 T02340029  RH  026%=      5-min Rain = 0
KWA1 132144Z 31013KT 23/03 A2986 RMK A01 T02340031  RH  026%=      5-min Rain = 0
KWA1 132145Z 31014KT 23/03 A2986 RMK A01 T02340032  RH  027%=      5-min Rain = 0
KWA1 132146Z 31017G22KT 23/03 A2986 RMK A01 T02330029  RH  026%=      5-min Rain = 0
KWA1 132147Z 31018KT 23/02 A2986 RMK A01 T02340024  RH  025%=      5-min Rain = 0
KWA1 132148Z 31015G21KT 23/03 A2986 RMK A01 T02340028  RH  026%=      5-min Rain = 0
KWA1 132149Z 31016KT 23/03 A2986 RMK A01 T02330030  RH  026%=      5-min Rain = 0
KWA1 132150Z 31020KT 23/03 A2986 RMK A01 T02330027  RH  026%=      5-min Rain = 0
KWA1 132151Z 31017KT 23/02 A2986 RMK A01 T02330024  RH  025%=      5-min Rain = 0
KWA1 132152Z 31015KT 23/03 A2986 RMK A01 T02330028  RH  026%=      5-min Rain = 0
KWA1 132153Z 31016KT 23/03 A2986 RMK A01 T02330028  RH  026%=      5-min Rain = 0
KWA1 132154Z 31016KT 23/03 A2986 RMK A01 T02330028  RH  026%=      5-min Rain = 0
KWA1 132155Z 32015KT 23/03 A2986 RMK A01 T02330028  RH  026%=      5-min Rain = 0
KWA1 132156Z 32017KT 23/03 A2986 RMK A01 T02320028  RH  026%=      5-min Rain = 0
KWA1 132157Z 31017KT 23/03 A2986 RMK A01 T02320027  RH  026%=      5-min Rain = 0
KWA1 132158Z 32016G21KT 23/03 A2986 RMK A01 T02320028  RH  026%=      5-min Rain = 0
KWA1 132159Z 32018KT 23/03 A2986 RMK A01 T02320025  RH  026%=      5-min Rain = 0
KWA1 132200Z 31015KT 23/03 A2986 RMK A01 T02320027  RH  026%=      5-min Rain = 0
KWA1 132201Z 31016KT 23/03 A2986 RMK A01 T02320027  RH  026%=      5-min Rain = 0
KWA1 132202Z 31013KT 23/03 A2986 RMK A01 T02320028  RH  026%=      5-min Rain = 0
KWA1 132203Z 31014KT 23/03 A2986 RMK A01 T02310030  RH  027%=      5-min Rain = 0
KWA1 132204Z 31013KT 23/03 A2986 RMK A01 T02310029  RH  027%=      5-min Rain = 0
KWA1 132205Z 31012KT 23/03 A2986 RMK A01 T02310030  RH  027%=      5-min Rain = 0
KWA1 132206Z 32013KT 23/03 A2986 RMK A01 T02300031  RH  027%=      5-min Rain = 0
KWA1 132207Z 31013KT 23/03 A2986 RMK A01 T02300029  RH  027%=      5-min Rain = 0
KWA1 132208Z 32011KT 23/03 A2986 RMK A01 T02300031  RH  027%=      5-min Rain = 0
KWA1 132209Z 31011KT 23/03 A2986 RMK A01 T02290032  RH  028%=      5-min Rain = 0
KWA1 132210Z 31012KT 23/03 A2986 RMK A01 T02300030  RH  027%=      5-min Rain = 0
KWA1 132211Z 31011KT 23/03 A2986 RMK A01 T02290031  RH  027%=      5-min Rain = 0
KWA1 132212Z 31012KT 23/03 A2986 RMK A01 T02290032  RH  027%=      5-min Rain = 0
KWA1 132213Z 31013KT 23/03 A2986 RMK A01 T02290030  RH  027%=      5-min Rain = 0
KWA1 132214Z 31012KT 23/03 A2986 RMK A01 T02290032  RH  028%=      5-min Rain = 0
KWA1 132215Z 31011KT 23/03 A2986 RMK A01 T02280034  RH  028%=      5-min Rain = 0
KWA1 132216Z 31012KT 23/03 A2987 RMK A01 T02280033  RH  028%=      5-min Rain = 0
KWA1 132217Z 31013KT 23/03 A2987 RMK A01 T02280031  RH  028%=      5-min Rain = 0
KWA1 132218Z 31011KT 23/03 A2987 RMK A01 T02280033  RH  028%=      5-min Rain = 0
KWA1 132219Z 31010KT 23/04 A2987 RMK A01 T02270036  RH  029%=      5-min Rain = 0
KWA1 132220Z 31011KT 23/04 A2987 RMK A01 T02260036  RH  029%=      5-min Rain = 0
KWA1 132221Z 31010KT 23/04 A2987 RMK A01 T02250036  RH  029%=      5-min Rain = 0
KWA1 132222Z 31010KT 22/04 A2987 RMK A01 T02240037  RH  029%=      5-min Rain = 0
KWA1 132223Z 31011KT 22/04 A2987 RMK A01 T02240036  RH  029%=      5-min Rain = 0
KWA1 132224Z 30011KT 22/04 A2987 RMK A01 T02240036  RH  029%=      5-min Rain = 0
KWA1 132225Z 30011KT 22/04 A2987 RMK A01 T02240037  RH  029%=      5-min Rain = 0
KWA1 132226Z 30010KT 22/04 A2987 RMK A01 T02240039  RH  030%=      5-min Rain = 0
KWA1 132227Z 30010KT 22/04 A2986 RMK A01 T02230037  RH  030%=      5-min Rain = 0
KWA1 132228Z 30009KT 22/04 A2986 RMK A01 T02230040  RH  030%=      5-min Rain = 0
KWA1 132229Z 30009KT 22/04 A2986 RMK A01 T02230039  RH  030%=      5-min Rain = 0
KWA1 132230Z 30010KT 22/04 A2986 RMK A01 T02230040  RH  030%=      5-min Rain = 0
KWA1 132231Z 30010KT 22/04 A2986 RMK A01 T02240037  RH  029%=      5-min Rain = 0
KWA1 132232Z 30010KT 23/04 A2986 RMK A01 T02250039  RH  030%=      5-min Rain = 0
KWA1 132233Z 30009KT 23/04 A2986 RMK A01 T02260040  RH  030%=      5-min Rain = 0
KWA1 132234Z 30009KT 23/04 A2986 RMK A01 T02260041  RH  030%=      5-min Rain = 0
KWA1 132235Z 30009KT 23/04 A2986 RMK A01 T02260041  RH  030%=      5-min Rain = 0
KWA1 132236Z 30009KT 23/04 A2987 RMK A01 T02260043  RH  030%=      5-min Rain = 0
KWA1 132237Z 30008KT 23/04 A2987 RMK A01 T02260044  RH  031%=      5-min Rain = 0
KWA1 132238Z 30009KT 23/04 A2987 RMK A01 T02260044  RH  031%=      5-min Rain = 0
KWA1 132239Z 30008KT 23/05 A2987 RMK A01 T02260045  RH  031%=      5-min Rain = 0
KWA1 132240Z 30009KT 23/04 A2987 RMK A01 T02260043  RH  030%=      5-min Rain = 0
KWA1 132241Z 30008KT 23/04 A2987 RMK A01 T02250044  RH  031%=      5-min Rain = 0
KWA1 132242Z 30009KT 23/04 A2987 RMK A01 T02250044  RH  031%=      5-min Rain = 0
KWA1 132243Z 30009KT 23/04 A2987 RMK A01 T02250043  RH  031%=      5-min Rain = 0
KWA1 132244Z 30009KT 23/04 A2987 RMK A01 T02250041  RH  030%=      5-min Rain = 0
KWA1 132245Z 30009KT 23/04 A2987 RMK A01 T02250041  RH  030%=      5-min Rain = 0
KWA1 132246Z 30009KT 23/04 A2987 RMK A01 T02250041  RH  030%=      5-min Rain = 0
KWA1 132247Z 30008KT 23/04 A2987 RMK A01 T02250041  RH  030%=      5-min Rain = 0
KWA1 132248Z 30008KT 22/04 A2987 RMK A01 T02240043  RH  031%=      5-min Rain = 0
KWA1 132249Z 30010KT 22/04 A2987 RMK A01 T02240040  RH  030%=      5-min Rain = 0
KWA1 132250Z 30009KT 22/04 A2987 RMK A01 T02240039  RH  030%=      5-min Rain = 0
KWA1 132251Z 30009KT 22/04 A2987 RMK A01 T02240038  RH  030%=      5-min Rain = 0
KWA1 132252Z 29010KT 22/04 A2987 RMK A01 T02240040  RH  030%=      5-min Rain = 0
KWA1 132253Z 29009KT 22/04 A2987 RMK A01 T02240037  RH  030%=      5-min Rain = 0
KWA1 132254Z 29009KT 22/04 A2987 RMK A01 T02240038  RH  030%=      5-min Rain = 0
KWA1 132255Z 29009KT 22/04 A2987 RMK A01 T02240039  RH  030%=      5-min Rain = 0
KWA1 132256Z 29009KT 22/04 A2987 RMK A01 T02230039  RH  030%=      5-min Rain = 0
KWA1 132257Z 29010KT 22/04 A2987 RMK A01 T02220041  RH  030%=      5-min Rain = 0
KWA1 132258Z 29010KT 22/04 A2987 RMK A01 T02220037  RH  030%=      5-min Rain = 0
KWA1 132259Z 29009KT 22/04 A2987 RMK A01 T02220039  RH  030%=      5-min Rain = 0
KWA1 132300Z 29009KT 22/04 A2987 RMK A01 T02210039  RH  030%=      5-min Rain = 0
KWA1 132301Z 29008KT 22/04 A2987 RMK A01 T02210038  RH  030%=      5-min Rain = 0
KWA1 132302Z 29009KT 22/04 A2987 RMK A01 T02200039  RH  031%=      5-min Rain = 0
KWA1 132303Z 29008KT 22/04 A2987 RMK A01 T02190041  RH  031%=      5-min Rain = 0
KWA1 132304Z 29009KT 22/04 A2987 RMK A01 T02180040  RH  031%=      5-min Rain = 0
KWA1 132305Z 28008KT 22/04 A2987 RMK A01 T02160040  RH  032%=      5-min Rain = 0
KWA1 132306Z 28008KT 22/04 A2987 RMK A01 T02150041  RH  032%=      5-min Rain = 0
KWA1 132307Z 28008KT 21/04 A2987 RMK A01 T02140040  RH  032%=      5-min Rain = 0
KWA1 132308Z 29009KT 21/04 A2987 RMK A01 T02140040  RH  032%=      5-min Rain = 0
KWA1 132309Z 29009KT 21/04 A2987 RMK A01 T02130040  RH  032%=      5-min Rain = 0
KWA1 132310Z 29008KT 21/04 A2987 RMK A01 T02120040  RH  032%=      5-min Rain = 0
KWA1 132311Z 29009KT 21/04 A2987 RMK A01 T02110041  RH  033%=      5-min Rain = 0
KWA1 132312Z 29009KT 21/04 A2987 RMK A01 T02110039  RH  032%=      5-min Rain = 0
KWA1 132313Z 29010KT 21/04 A2987 RMK A01 T02110038  RH  032%=      5-min Rain = 0
KWA1 132314Z 29009KT 21/04 A2987 RMK A01 T02110038  RH  032%=      5-min Rain = 0
KWA1 132315Z 29008KT 21/04 A2987 RMK A01 T02100039  RH  032%=      5-min Rain = 0
KWA1 132316Z 29009KT 21/04 A2987 RMK A01 T02100039  RH  032%=      5-min Rain = 0
KWA1 132317Z 29008KT 21/04 A2987 RMK A01 T02100039  RH  033%=      5-min Rain = 0
KWA1 132318Z 28008KT 21/04 A2987 RMK A01 T02090040  RH  033%=      5-min Rain = 0
KWA1 132319Z 28009KT 21/04 A2987 RMK A01 T02080040  RH  033%=      5-min Rain = 0
KWA1 132320Z 29008KT 21/04 A2987 RMK A01 T02070039  RH  033%=      5-min Rain = 0
KWA1 132321Z 29008KT 21/04 A2987 RMK A01 T02070041  RH  034%=      5-min Rain = 0
KWA1 132322Z 28008KT 21/04 A2987 RMK A01 T02050041  RH  034%=      5-min Rain = 0
KWA1 132323Z 29008KT 20/04 A2987 RMK A01 T02040041  RH  034%=      5-min Rain = 0
KWA1 132324Z 29008KT 20/04 A2987 RMK A01 T02030042  RH  035%=      5-min Rain = 0
KWA1 132325Z 29009KT 20/04 A2987 RMK A01 T02020041  RH  035%=      5-min Rain = 0
KWA1 132326Z 29008KT 20/04 A2987 RMK A01 T02020040  RH  034%=      5-min Rain = 0
KWA1 132327Z 28008KT 20/04 A2987 RMK A01 T02020041  RH  035%=      5-min Rain = 0
KWA1 132328Z 28008KT 20/04 A2987 RMK A01 T02010042  RH  035%=      5-min Rain = 0
KWA1 132329Z 28008KT 20/04 A2987 RMK A01 T02000043  RH  036%=      5-min Rain = 0
KWA1 132330Z 28008KT 20/04 A2987 RMK A01 T01990043  RH  036%=      5-min Rain = 0
KWA1 132331Z 28009KT 20/04 A2987 RMK A01 T01980043  RH  036%=      5-min Rain = 0
KWA1 132332Z 28008KT 20/04 A2987 RMK A01 T01980042  RH  036%=      5-min Rain = 0
KWA1 132333Z 28008KT 20/04 A2987 RMK A01 T01980043  RH  036%=      5-min Rain = 0
KWA1 132334Z 28007KT 20/04 A2987 RMK A01 T01970043  RH  036%=      5-min Rain = 0
KWA1 132335Z 28007KT 20/04 A2987 RMK A01 T01970044  RH  037%=      5-min Rain = 0
KWA1 132336Z 28007KT 20/05 A2987 RMK A01 T01950045  RH  037%=      5-min Rain = 0
KWA1 132337Z 28007KT 19/05 A2987 RMK A01 T01940045  RH  037%=      5-min Rain = 0
KWA1 132338Z 28007KT 19/04 A2987 RMK A01 T01920044  RH  038%=      5-min Rain = 0
KWA1 132339Z 28007KT 19/04 A2987 RMK A01 T01920043  RH  037%=      5-min Rain = 0
KWA1 132340Z 28007KT 19/04 A2987 RMK A01 T01910044  RH  038%=      5-min Rain = 0
KWA1 132341Z 28007KT 19/04 A2987 RMK A01 T01910043  RH  038%=      5-min Rain = 0
KWA1 132342Z 29007KT 19/04 A2987 RMK A01 T01910043  RH  038%=      5-min Rain = 0
KWA1 132343Z 29008KT 19/04 A2987 RMK A01 T01910043  RH  038%=      5-min Rain = 0
KWA1 132344Z 29008KT 19/04 A2987 RMK A01 T01900042  RH  038%=      5-min Rain = 0
KWA1 132345Z 28008KT 19/04 A2987 RMK A01 T01900042  RH  038%=      5-min Rain = 0
KWA1 132346Z 28008KT 19/04 A2987 RMK A01 T01900043  RH  038%=      5-min Rain = 0
KWA1 132347Z 28008KT 19/04 A2987 RMK A01 T01890042  RH  038%=      5-min Rain = 0
KWA1 132348Z 29007KT 19/04 A2987 RMK A01 T01890042  RH  038%=      5-min Rain = 0
KWA1 132349Z 28007KT 19/04 A2987 RMK A01 T01880042  RH  038%=      5-min Rain = 0
KWA1 132350Z 28007KT 19/04 A2987 RMK A01 T01880043  RH  038%=      5-min Rain = 0
KWA1 132351Z 28007KT 19/04 A2987 RMK A01 T01870044  RH  039%=      5-min Rain = 0
KWA1 132352Z 28007KT 19/04 A2987 RMK A01 T01860044  RH  039%=      5-min Rain = 0
KWA1 132353Z 28008KT 19/05 A2987 RMK A01 T01850045  RH  039%=      5-min Rain = 0
KWA1 132354Z 28008KT 18/05 A2987 RMK A01 T01840045  RH  040%=      5-min Rain = 0
KWA1 132355Z 28008KT 18/05 A2987 RMK A01 T01830046  RH  040%=      5-min Rain = 0
KWA1 132356Z 28008KT 18/05 A2987 RMK A01 T01820046  RH  041%=      5-min Rain = 0
KWA1 132357Z 28007KT 18/05 A2987 RMK A01 T01800046  RH  041%=      5-min Rain = 0
KWA1 132358Z 28007KT 18/05 A2987 RMK A01 T01790045  RH  041%=      5-min Rain = 0
KWA1 132359Z 27007KT 18/05 A2987 RMK A01 T01780045  RH  041%=      5-min Rain = 0
KWA1 140000Z 28007KT 18/04 A2987 RMK A01 T01770043  RH  041%=      5-min Rain = 0
KWA1 140001Z 27006KT 18/04 A2987 RMK A01 T01770042  RH  041%=      5-min Rain = 0
KWA1 140002Z 26005KT 18/04 A2987 RMK A01 T01770042  RH  041%=      5-min Rain = 0
KWA1 140003Z 25005KT 18/04 A2987 RMK A01 T01760043  RH  041%=      5-min Rain = 0
KWA1 140004Z 26006KT 17/04 A2987 RMK A01 T01740043  RH  042%=      5-min Rain = 0
KWA1 140005Z 26006KT 17/04 A2987 RMK A01 T01730043  RH  042%=      5-min Rain = 0
KWA1 140006Z 27006KT 17/04 A2988 RMK A01 T01720043  RH  042%=      5-min Rain = 0
KWA1 140007Z 27006KT 17/04 A2988 RMK A01 T01710043  RH  043%=      5-min Rain = 0
KWA1 140008Z 27006KT 17/04 A2988 RMK A01 T01710043  RH  043%=      5-min Rain = 0
KWA1 140009Z 27007KT 17/04 A2988 RMK A01 T01700043  RH  043%=      5-min Rain = 0
KWA1 140010Z 27006KT 17/04 A2988 RMK A01 T01700043  RH  043%=      5-min Rain = 0
KWA1 140011Z 26006KT 17/04 A2988 RMK A01 T01690043  RH  043%=      5-min Rain = 0
KWA1 140012Z 26006KT 17/04 A2988 RMK A01 T01690044  RH  043%=      5-min Rain = 0
KWA1 140013Z 26007KT 17/04 A2988 RMK A01 T01680044  RH  044%=      5-min Rain = 0
KWA1 140014Z 26007KT 17/04 A2988 RMK A01 T01660044  RH  044%=      5-min Rain = 0
KWA1 140015Z 26007KT 16/04 A2988 RMK A01 T01640043  RH  044%=      5-min Rain = 0
KWA1 140016Z 26007KT 16/04 A2988 RMK A01 T01630043  RH  045%=      5-min Rain = 0
KWA1 140017Z 26007KT 16/04 A2988 RMK A01 T01620043  RH  045%=      5-min Rain = 0
KWA1 140018Z 26007KT 16/04 A2988 RMK A01 T01620043  RH  045%=      5-min Rain = 0
KWA1 140019Z 27006KT 16/04 A2988 RMK A01 T01620044  RH  045%=      5-min Rain = 0
KWA1 140020Z 27006KT 16/04 A2988 RMK A01 T01610043  RH  046%=      5-min Rain = 0
KWA1 140021Z 27006KT 16/04 A2988 RMK A01 T01610043  RH  046%=      5-min Rain = 0
KWA1 140022Z 27006KT 16/04 A2988 RMK A01 T01610043  RH  045%=      5-min Rain = 0
KWA1 140023Z 27006KT 16/04 A2988 RMK A01 T01610042  RH  045%=      5-min Rain = 0
KWA1 140024Z 27006KT 16/04 A2988 RMK A01 T01610042  RH  045%=      5-min Rain = 0
KWA1 140025Z 27005KT 16/04 A2988 RMK A01 T01610043  RH  045%=      5-min Rain = 0
KWA1 140026Z 26005KT 16/04 A2988 RMK A01 T01600043  RH  046%=      5-min Rain = 0
KWA1 140027Z 26005KT 16/05 A2988 RMK A01 T01580046  RH  047%=      5-min Rain = 0
KWA1 140028Z 26005KT 16/05 A2988 RMK A01 T01560047  RH  048%=      5-min Rain = 0
KWA1 140029Z 26005KT 15/05 A2988 RMK A01 T01530047  RH  049%=      5-min Rain = 0
KWA1 140030Z 26005KT 15/05 A2988 RMK A01 T01520047  RH  050%=      5-min Rain = 0
KWA1 140031Z 26005KT 15/05 A2988 RMK A01 T01500048  RH  050%=      5-min Rain = 0
KWA1 140032Z 26006KT 15/05 A2988 RMK A01 T01490048  RH  051%=      5-min Rain = 0
KWA1 140033Z 26006KT 15/05 A2988 RMK A01 T01480048  RH  051%=      5-min Rain = 0
KWA1 140034Z 26006KT 15/05 A2988 RMK A01 T01480048  RH  051%=      5-min Rain = 0
KWA1 140035Z 26006KT 15/05 A2988 RMK A01 T01480048  RH  051%=      5-min Rain = 0
KWA1 140036Z 25005KT 15/05 A2988 RMK A01 T01470048  RH  051%=      5-min Rain = 0
KWA1 140037Z 25006KT 15/05 A2988 RMK A01 T01460049  RH  052%=      5-min Rain = 0
KWA1 140038Z 24006KT 15/05 A2988 RMK A01 T01450049  RH  052%=      5-min Rain = 0
KWA1 140039Z 24008KT 15/05 A2988 RMK A01 T01450049  RH  052%=      5-min Rain = 0
KWA1 140040Z 24008KT 15/05 A2988 RMK A01 T01460050  RH  052%=      5-min Rain = 0
KWA1 140041Z 24008KT 15/05 A2988 RMK A01 T01460050  RH  053%=      5-min Rain = 0
KWA1 140042Z 24007KT 15/05 A2988 RMK A01 T01460051  RH  053%=      5-min Rain = 0
KWA1 140043Z 24007KT 15/05 A2988 RMK A01 T01460051  RH  053%=      5-min Rain = 0
KWA1 140044Z 24007KT 15/05 A2988 RMK A01 T01450051  RH  053%=      5-min Rain = 0
KWA1 140045Z 24007KT 15/05 A2988 RMK A01 T01450050  RH  053%=      5-min Rain = 0
KWA1 140046Z 24007KT 15/05 A2988 RMK A01 T01450050  RH  053%=      5-min Rain = 0
KWA1 140047Z 24007KT 14/05 A2988 RMK A01 T01440050  RH  053%=      5-min Rain = 0
KWA1 140048Z 24007KT 14/05 A2988 RMK A01 T01430050  RH  053%=      5-min Rain = 0
KWA1 140049Z 24007KT 14/05 A2988 RMK A01 T01430050  RH  054%=      5-min Rain = 0
KWA1 140050Z 24007KT 14/05 A2988 RMK A01 T01420050  RH  054%=      5-min Rain = 0
KWA1 140051Z 24006KT 14/05 A2988 RMK A01 T01410049  RH  054%=      5-min Rain = 0
KWA1 140052Z 25007KT 14/05 A2989 RMK A01 T01410049  RH  054%=      5-min Rain = 0
KWA1 140053Z 25007KT 14/05 A2989 RMK A01 T01400048  RH  054%=      5-min Rain = 0
KWA1 140054Z 24007KT 14/05 A2989 RMK A01 T01400047  RH  054%=      5-min Rain = 0
KWA1 140055Z 24007KT 14/05 A2989 RMK A01 T01400047  RH  053%=      5-min Rain = 0
KWA1 140056Z 24008KT 14/05 A2989 RMK A01 T01400047  RH  053%=      5-min Rain = 0
KWA1 140057Z 24007KT 14/05 A2989 RMK A01 T01400046  RH  053%=      5-min Rain = 0
KWA1 140058Z 23007KT 14/05 A2989 RMK A01 T01400047  RH  053%=      5-min Rain = 0
KWA1 140059Z 24007KT 14/05 A2989 RMK A01 T01390046  RH  054%=      5-min Rain = 0
KWA1 140100Z 24008KT 14/05 A2989 RMK A01 T01380046  RH  054%=      5-min Rain = 0
KWA1 140101Z 24007KT 14/05 A2989 RMK A01 T01370046  RH  054%=      5-min Rain = 0
KWA1 140102Z 24007KT 14/05 A2989 RMK A01 T01370046  RH  054%=      5-min Rain = 0
KWA1 140103Z 24008KT 14/05 A2989 RMK A01 T01360046  RH  054%=      5-min Rain = 0
KWA1 140104Z 24008KT 14/05 A2989 RMK A01 T01360046  RH  054%=      5-min Rain = 0
KWA1 140105Z 24008KT 14/05 A2989 RMK A01 T01360046  RH  054%=      5-min Rain = 0
KWA1 140106Z 24009KT 14/05 A2989 RMK A01 T01360045  RH  054%=      5-min Rain = 0
KWA1 140107Z 24008KT 14/05 A2989 RMK A01 T01360045  RH  054%=      5-min Rain = 0
KWA1 140108Z 24008KT 14/05 A299 RMK A01 T01360045  RH  054%=      5-min Rain = 0
KWA1 140109Z 24008KT 14/04 A2989 RMK A01 T01360044  RH  054%=      5-min Rain = 0
KWA1 140110Z 24008KT 14/04 A2989 RMK A01 T01370044  RH  053%=      5-min Rain = 0
KWA1 140111Z 24008KT 14/04 A2989 RMK A01 T01380043  RH  053%=      5-min Rain = 0
KWA1 140112Z 24008KT 14/04 A2989 RMK A01 T01380043  RH  053%=      5-min Rain = 0
KWA1 140113Z 25008KT 14/04 A2989 RMK A01 T01380044  RH  053%=      5-min Rain = 0
KWA1 140114Z 25008KT 14/04 A2989 RMK A01 T01380043  RH  053%=      5-min Rain = 0
KWA1 140115Z 25008KT 14/04 A2989 RMK A01 T01370043  RH  053%=      5-min Rain = 0
KWA1 140116Z 24008KT 14/04 A2989 RMK A01 T01370043  RH  053%=      5-min Rain = 0
KWA1 140117Z 24008KT 14/04 A2989 RMK A01 T01370043  RH  053%=      5-min Rain = 0
KWA1 140118Z 24008KT 14/04 A2989 RMK A01 T01370043  RH  053%=      5-min Rain = 0
KWA1 140119Z 25008KT 14/04 A2989 RMK A01 T01370043  RH  053%=      5-min Rain = 0
KWA1 140120Z 25008KT 14/04 A2989 RMK A01 T01370044  RH  053%=      5-min Rain = 0
KWA1 140121Z 25008KT 14/04 A299 RMK A01 T01360044  RH  054%=      5-min Rain = 0
KWA1 140122Z 25008KT 14/04 A299 RMK A01 T01360044  RH  054%=      5-min Rain = 0
KWA1 140123Z 25008KT 14/04 A299 RMK A01 T01350044  RH  054%=      5-min Rain = 0
KWA1 140124Z 25008KT 13/04 A2989 RMK A01 T01340043  RH  054%=      5-min Rain = 0
KWA1 140125Z 25008KT 13/04 A2989 RMK A01 T01340043  RH  054%=      5-min Rain = 0
KWA1 140126Z 24008KT 13/04 A2989 RMK A01 T01340043  RH  054%=      5-min Rain = 0
KWA1 140127Z 24008KT 13/04 A2989 RMK A01 T01340043  RH  054%=      5-min Rain = 0
KWA1 140128Z 25008KT 13/04 A2989 RMK A01 T01340043  RH  054%=      5-min Rain = 0
KWA1 140129Z 25008KT 13/04 A2989 RMK A01 T01340042  RH  054%=      5-min Rain = 0
KWA1 140130Z 25008KT 14/04 A2989 RMK A01 T01350042  RH  053%=      5-min Rain = 0
KWA1 140131Z 25008KT 14/04 A2989 RMK A01 T01360041  RH  053%=      5-min Rain = 0
KWA1 140132Z 25008KT 14/04 A2989 RMK A01 T01360041  RH  053%=      5-min Rain = 0
KWA1 140133Z 25008KT 14/04 A2989 RMK A01 T01360041  RH  053%=      5-min Rain = 0
KWA1 140134Z 26008KT 14/04 A2989 RMK A01 T01360041  RH  052%=      5-min Rain = 0
KWA1 140135Z 26008KT 14/04 A2989 RMK A01 T01360040  RH  052%=      5-min Rain = 0
KWA1 140136Z 26008KT 14/04 A2989 RMK A01 T01370041  RH  052%=      5-min Rain = 0
KWA1 140137Z 26008KT 14/04 A2989 RMK A01 T01370040  RH  052%=      5-min Rain = 0
KWA1 140138Z 26008KT 14/04 A2989 RMK A01 T01370039  RH  052%=      5-min Rain = 0
KWA1 140139Z 26008KT 14/04 A2989 RMK A01 T01370039  RH  052%=      5-min Rain = 0
KWA1 140140Z 26008KT 14/04 A2989 RMK A01 T01370039  RH  051%=      5-min Rain = 0
KWA1 140141Z 26008KT 14/04 A2989 RMK A01 T01370039  RH  051%=      5-min Rain = 0
KWA1 140142Z 25008KT 14/04 A2989 RMK A01 T01380039  RH  051%=      5-min Rain = 0
KWA1 140143Z 25009KT 14/04 A2989 RMK A01 T01380039  RH  051%=      5-min Rain = 0
KWA1 140144Z 25010KT 14/04 A2989 RMK A01 T01370040  RH  052%=      5-min Rain = 0
KWA1 140145Z 25009KT 14/04 A2989 RMK A01 T01360040  RH  052%=      5-min Rain = 0
KWA1 140146Z 25008KT 14/04 A2989 RMK A01 T01370039  RH  052%=      5-min Rain = 0
KWA1 140147Z 26008KT 14/04 A2989 RMK A01 T01390039  RH  051%=      5-min Rain = 0
KWA1 140148Z 26008KT 14/04 A2989 RMK A01 T01410038  RH  050%=      5-min Rain = 0
KWA1 140149Z 26008KT 14/04 A2989 RMK A01 T01420038  RH  049%=      5-min Rain = 0
KWA1 140150Z 25008KT 14/04 A2989 RMK A01 T01430038  RH  049%=      5-min Rain = 0
KWA1 140151Z 25009KT 14/04 A2989 RMK A01 T01430038  RH  049%=      5-min Rain = 0
KWA1 140152Z 26008KT 14/04 A2989 RMK A01 T01420038  RH  050%=      5-min Rain = 0
KWA1 140153Z 26009KT 14/04 A2989 RMK A01 T01410039  RH  050%=      5-min Rain = 0
KWA1 140154Z 26008KT 14/04 A2989 RMK A01 T01400039  RH  050%=      5-min Rain = 0
KWA1 140155Z 25009KT 14/04 A2989 RMK A01 T01400039  RH  051%=      5-min Rain = 0
KWA1 140156Z 25010KT 14/04 A2989 RMK A01 T01390039  RH  051%=      5-min Rain = 0
KWA1 140157Z 25010KT 14/04 A2989 RMK A01 T01390038  RH  050%=      5-min Rain = 0
KWA1 140158Z 25009KT 14/04 A2989 RMK A01 T01390038  RH  050%=      5-min Rain = 0
KWA1 140159Z 24010KT 14/04 A2989 RMK A01 T01390038  RH  051%=      5-min Rain = 0
KWA1 140200Z 24010KT 14/04 A2989 RMK A01 T01390039  RH  051%=      5-min Rain = 0
KWA1 140201Z 24009KT 14/04 A2989 RMK A01 T01390040  RH  051%=      5-min Rain = 0
KWA1 140202Z 25009KT 14/04 A2989 RMK A01 T01370040  RH  052%=      5-min Rain = 0
KWA1 140203Z 25009KT 14/04 A2989 RMK A01 T01360040  RH  052%=      5-min Rain = 0
KWA1 140204Z 26009KT 14/04 A2989 RMK A01 T01350039  RH  052%=      5-min Rain = 0
KWA1 140205Z 26009KT 14/04 A2989 RMK A01 T01350039  RH  052%=      5-min Rain = 0
KWA1 140206Z 25008KT 14/04 A299 RMK A01 T01350039  RH  052%=      5-min Rain = 0
KWA1 140207Z 25008KT 14/04 A299 RMK A01 T01350040  RH  053%=      5-min Rain = 0
KWA1 140208Z 25008KT 13/04 A299 RMK A01 T01330040  RH  053%=      5-min Rain = 0
KWA1 140209Z 25008KT 13/04 A299 RMK A01 T01320039  RH  053%=      5-min Rain = 0
KWA1 140210Z 25008KT 13/04 A299 RMK A01 T01310039  RH  053%=      5-min Rain = 0
KWA1 140211Z 25008KT 13/04 A299 RMK A01 T01310039  RH  054%=      5-min Rain = 0
KWA1 140212Z 25008KT 13/04 A299 RMK A01 T01300039  RH  054%=      5-min Rain = 0
KWA1 140213Z 25008KT 13/04 A299 RMK A01 T01300039  RH  054%=      5-min Rain = 0
KWA1 140214Z 25008KT 13/04 A299 RMK A01 T01300038  RH  054%=      5-min Rain = 0
KWA1 140215Z 26008KT 13/04 A299 RMK A01 T01300038  RH  054%=      5-min Rain = 0
KWA1 140216Z 26008KT 13/04 A299 RMK A01 T01300038  RH  053%=      5-min Rain = 0
KWA1 140217Z 26008KT 13/04 A299 RMK A01 T01300037  RH  053%=      5-min Rain = 0
KWA1 140218Z 25008KT 13/04 A299 RMK A01 T01300037  RH  054%=      5-min Rain = 0
KWA1 140219Z 25008KT 13/04 A299 RMK A01 T01290038  RH  054%=      5-min Rain = 0
KWA1 140220Z 25008KT 13/04 A299 RMK A01 T01280038  RH  054%=      5-min Rain = 0
KWA1 140221Z 25007KT 13/04 A299 RMK A01 T01260037  RH  055%=      5-min Rain = 0
KWA1 140222Z 25007KT 13/04 A299 RMK A01 T01250037  RH  055%=      5-min Rain = 0
KWA1 140223Z 25007KT 13/04 A299 RMK A01 T01250037  RH  055%=      5-min Rain = 0
KWA1 140224Z 25006KT 12/04 A299 RMK A01 T01230037  RH  055%=      5-min Rain = 0
KWA1 140225Z 25006KT 12/04 A299 RMK A01 T01220037  RH  056%=      5-min Rain = 0
KWA1 140226Z 25007KT 12/04 A299 RMK A01 T01210036  RH  056%=      5-min Rain = 0
KWA1 140227Z 25007KT 12/04 A299 RMK A01 T01200036  RH  056%=      5-min Rain = 0
KWA1 140228Z 25007KT 12/04 A299 RMK A01 T01200036  RH  056%=      5-min Rain = 0
KWA1 140229Z 25007KT 12/04 A299 RMK A01 T01200036  RH  056%=      5-min Rain = 0
KWA1 140230Z 25007KT 12/04 A299 RMK A01 T01210036  RH  056%=      5-min Rain = 0
KWA1 140231Z 25007KT 12/04 A299 RMK A01 T01210036  RH  056%=      5-min Rain = 0
KWA1 140232Z 25007KT 12/04 A299 RMK A01 T01210036  RH  056%=      5-min Rain = 0
KWA1 140233Z 25007KT 12/04 A299 RMK A01 T01220035  RH  055%=      5-min Rain = 0
KWA1 140234Z 25007KT 12/04 A299 RMK A01 T01220035  RH  055%=      5-min Rain = 0
KWA1 140235Z 25007KT 12/04 A299 RMK A01 T01230036  RH  055%=      5-min Rain = 0
KWA1 140236Z 25007KT 12/04 A299 RMK A01 T01220036  RH  056%=      5-min Rain = 0
KWA1 140237Z 26007KT 12/04 A299 RMK A01 T01210036  RH  056%=      5-min Rain = 0
KWA1 140238Z 26007KT 12/04 A299 RMK A01 T01200036  RH  056%=      5-min Rain = 0
KWA1 140239Z 26006KT 12/04 A299 RMK A01 T01200036  RH  056%=      5-min Rain = 0
KWA1 140240Z 27006KT 12/04 A299 RMK A01 T01200036  RH  056%=      5-min Rain = 0
KWA1 140241Z 27005KT 12/04 A299 RMK A01 T01200036  RH  056%=      5-min Rain = 0
KWA1 140242Z 27005KT 12/04 A299 RMK A01 T01200036  RH  057%=      5-min Rain = 0
KWA1 140243Z 26006KT 12/04 A299 RMK A01 T01190036  RH  056%=      5-min Rain = 0
KWA1 140244Z 26006KT 12/04 A299 RMK A01 T01200035  RH  056%=      5-min Rain = 0
KWA1 140245Z 27006KT 12/04 A299 RMK A01 T01200036  RH  056%=      5-min Rain = 0
KWA1 140246Z 27006KT 12/04 A299 RMK A01 T01200036  RH  056%=      5-min Rain = 0
KWA1 140247Z 26007KT 12/04 A299 RMK A01 T01200035  RH  056%=      5-min Rain = 0
KWA1 140248Z 27007KT 12/03 A299 RMK A01 T01210034  RH  056%=      5-min Rain = 0
KWA1 140249Z 27007KT 12/03 A2991 RMK A01 T01220034  RH  055%=      5-min Rain = 0
KWA1 140250Z 27007KT 12/03 A2991 RMK A01 T01220034  RH  055%=      5-min Rain = 0
KWA1 140251Z 28007KT 12/03 A2991 RMK A01 T01220034  RH  055%=      5-min Rain = 0
KWA1 140252Z 28007KT 12/03 A2991 RMK A01 T01220034  RH  055%=      5-min Rain = 0
KWA1 140253Z 28007KT 12/03 A2991 RMK A01 T01210034  RH  055%=      5-min Rain = 0
KWA1 140254Z 28007KT 12/03 A2991 RMK A01 T01210034  RH  056%=      5-min Rain = 0
KWA1 140255Z 28007KT 12/04 A299 RMK A01 T01200035  RH  056%=      5-min Rain = 0
KWA1 140256Z 27006KT 12/03 A2991 RMK A01 T01190034  RH  056%=      5-min Rain = 0
KWA1 140257Z 27007KT 12/03 A2991 RMK A01 T01190033  RH  056%=      5-min Rain = 0
KWA1 140258Z 26007KT 12/03 A2991 RMK A01 T01190033  RH  056%=      5-min Rain = 0
KWA1 140259Z 27007KT 12/03 A2991 RMK A01 T01180034  RH  056%=      5-min Rain = 0
KWA1 140300Z 27007KT 12/03 A2991 RMK A01 T01170034  RH  056%=      5-min Rain = 0
KWA1 140301Z 28007KT 12/03 A2991 RMK A01 T01180033  RH  056%=      5-min Rain = 0
KWA1 140302Z 27007KT 12/03 A2991 RMK A01 T01200033  RH  055%=      5-min Rain = 0
KWA1 140303Z 27007KT 12/03 A2991 RMK A01 T01230033  RH  054%=      5-min Rain = 0
KWA1 140304Z 27007KT 13/03 A2991 RMK A01 T01250032  RH  053%=      5-min Rain = 0
KWA1 140305Z 27007KT 13/03 A2991 RMK A01 T01270033  RH  053%=      5-min Rain = 0
KWA1 140306Z 27007KT 13/03 A299 RMK A01 T01250033  RH  054%=      5-min Rain = 0
KWA1 140307Z 26007KT 12/03 A299 RMK A01 T01210033  RH  055%=      5-min Rain = 0
KWA1 140308Z 26006KT 12/03 A299 RMK A01 T01170034  RH  056%=      5-min Rain = 0
KWA1 140309Z 26006KT 12/03 A299 RMK A01 T01160034  RH  057%=      5-min Rain = 0
KWA1 140310Z 26006KT 11/03 A299 RMK A01 T01140034  RH  058%=      5-min Rain = 0
KWA1 140311Z 26006KT 11/03 A299 RMK A01 T01140033  RH  057%=      5-min Rain = 0
KWA1 140312Z 26007KT 11/03 A299 RMK A01 T01140033  RH  057%=      5-min Rain = 0
KWA1 140313Z 26007KT 12/03 A299 RMK A01 T01150033  RH  057%=      5-min Rain = 0
KWA1 140314Z 26007KT 12/03 A299 RMK A01 T01150034  RH  058%=      5-min Rain = 0
KWA1 140315Z 26008KT 11/04 A299 RMK A01 T01130035  RH  059%=      5-min Rain = 0
KWA1 140316Z 26008KT 11/04 A299 RMK A01 T01110036  RH  060%=      5-min Rain = 0
KWA1 140317Z 26008KT 11/04 A299 RMK A01 T01100036  RH  060%=      5-min Rain = 0
KWA1 140318Z 26008KT 11/04 A299 RMK A01 T01090036  RH  061%=      5-min Rain = 0
KWA1 140319Z 26009KT 11/04 A299 RMK A01 T01090036  RH  061%=      5-min Rain = 0
KWA1 140320Z 26009KT 11/04 A2991 RMK A01 T01090036  RH  061%=      5-min Rain = 0
KWA1 140321Z 26009KT 11/04 A2991 RMK A01 T01090035  RH  060%=      5-min Rain = 0
KWA1 140322Z 26008KT 11/04 A2991 RMK A01 T01110035  RH  060%=      5-min Rain = 0
KWA1 140323Z 27008KT 11/04 A2991 RMK A01 T01130035  RH  059%=      5-min Rain = 0
KWA1 140324Z 27008KT 11/04 A2991 RMK A01 T01130035  RH  059%=      5-min Rain = 0
KWA1 140325Z 27008KT 11/04 A2991 RMK A01 T01140035  RH  059%=      5-min Rain = 0
KWA1 140326Z 27007KT 11/04 A2991 RMK A01 T01130036  RH  059%=      5-min Rain = 0
KWA1 140327Z 27007KT 11/04 A2991 RMK A01 T01130036  RH  059%=      5-min Rain = 0
KWA1 140328Z 27007KT 11/04 A2991 RMK A01 T01120037  RH  060%=      5-min Rain = 0
KWA1 140329Z 27007KT 11/04 A2991 RMK A01 T01110037  RH  060%=      5-min Rain = 0
KWA1 140330Z 27007KT 11/04 A2991 RMK A01 T01100037  RH  061%=      5-min Rain = 0
KWA1 140331Z 27006KT 11/04 A2991 RMK A01 T01090038  RH  061%=      5-min Rain = 0
KWA1 140332Z 27006KT 11/04 A2991 RMK A01 T01080038  RH  062%=      5-min Rain = 0
KWA1 140333Z 28007KT 11/04 A2991 RMK A01 T01070038  RH  063%=      5-min Rain = 0
KWA1 140334Z 27007KT 11/04 A2991 RMK A01 T01050038  RH  063%=      5-min Rain = 0
KWA1 140335Z 27007KT 10/04 A2991 RMK A01 T01030038  RH  064%=      5-min Rain = 0
KWA1 140336Z 27007KT 10/04 A2991 RMK A01 T01020038  RH  064%=      5-min Rain = 0
KWA1 140337Z 28008KT 10/04 A2991 RMK A01 T01010037  RH  064%=      5-min Rain = 0
KWA1 140338Z 27007KT 10/04 A2991 RMK A01 T01030036  RH  063%=      5-min Rain = 0
KWA1 140339Z 27007KT 11/04 A2992 RMK A01 T01060035  RH  062%=      5-min Rain = 0
KWA1 140340Z 27008KT 11/04 A2992 RMK A01 T01100035  RH  060%=      5-min Rain = 0
KWA1 140341Z 26009KT 11/04 A2992 RMK A01 T01130035  RH  059%=      5-min Rain = 0
KWA1 140342Z 26009KT 12/03 A2992 RMK A01 T01150034  RH  058%=      5-min Rain = 0
KWA1 140343Z 25007KT 12/04 A2992 RMK A01 T01170035  RH  057%=      5-min Rain = 0
KWA1 140344Z 25007KT 11/04 A2992 RMK A01 T01140036  RH  058%=      5-min Rain = 0
KWA1 140345Z 26007KT 11/04 A2992 RMK A01 T01110036  RH  060%=      5-min Rain = 0
KWA1 140346Z 26008KT 11/04 A2992 RMK A01 T01090035  RH  060%=      5-min Rain = 0
KWA1 140347Z 27008KT 11/04 A2992 RMK A01 T01070035  RH  061%=      5-min Rain = 0
KWA1 140348Z 27008KT 11/04 A2992 RMK A01 T01060035  RH  061%=      5-min Rain = 0
KWA1 140349Z 28009KT 11/04 A2991 RMK A01 T01060036  RH  062%=      5-min Rain = 0
KWA1 140350Z 28008KT 11/04 A2991 RMK A01 T01050036  RH  062%=      5-min Rain = 0
KWA1 140351Z 27008KT 10/04 A2991 RMK A01 T01040036  RH  063%=      5-min Rain = 0
KWA1 140352Z 27008KT 11/04 A2991 RMK A01 T01050036  RH  062%=      5-min Rain = 0
KWA1 140353Z 27008KT 11/04 A2991 RMK A01 T01060037  RH  062%=      5-min Rain = 0
KWA1 140354Z 28008KT 11/04 A2991 RMK A01 T01060037  RH  062%=      5-min Rain = 0
KWA1 140355Z 28008KT 11/04 A2991 RMK A01 T01060038  RH  063%=      5-min Rain = 0
KWA1 140356Z 28008KT 11/04 A2991 RMK A01 T01060038  RH  063%=      5-min Rain = 0
KWA1 140357Z 28007KT 11/04 A2991 RMK A01 T01060038  RH  063%=      5-min Rain = 0
KWA1 140358Z 28008KT 11/04 A2991 RMK A01 T01060038  RH  063%=      5-min Rain = 0
KWA1 140359Z 28008KT 11/04 A2992 RMK A01 T01060038  RH  063%=      5-min Rain = 0
KWA1 140400Z 28009KT 11/04 A2992 RMK A01 T01070038  RH  062%=      5-min Rain = 0
KWA1 140401Z 28008KT 11/04 A2991 RMK A01 T01080038  RH  062%=      5-min Rain = 0
KWA1 140402Z 28008KT 11/04 A2991 RMK A01 T01080038  RH  062%=      5-min Rain = 0
KWA1 140403Z 28008KT 11/04 A2991 RMK A01 T01090038  RH  062%=      5-min Rain = 0
KWA1 140404Z 27008KT 11/04 A2991 RMK A01 T01090038  RH  061%=      5-min Rain = 0
KWA1 140405Z 27009KT 11/04 A2991 RMK A01 T01100037  RH  061%=      5-min Rain = 0
KWA1 140406Z 27009KT 11/04 A2991 RMK A01 T01110038  RH  060%=      5-min Rain = 0
KWA1 140407Z 27009KT 11/04 A2991 RMK A01 T01120038  RH  060%=      5-min Rain = 0
KWA1 140408Z 26009KT 11/04 A2991 RMK A01 T01130037  RH  060%=      5-min Rain = 0
KWA1 140409Z 27009KT 11/04 A2991 RMK A01 T01140038  RH  059%=      5-min Rain = 0
KWA1 140410Z 27009KT 12/04 A2991 RMK A01 T01160038  RH  059%=      5-min Rain = 0
KWA1 140411Z 27010KT 12/04 A2991 RMK A01 T01190038  RH  057%=      5-min Rain = 0
KWA1 140412Z 27009KT 12/04 A2991 RMK A01 T01220038  RH  057%=      5-min Rain = 0
KWA1 140413Z 27009KT 12/04 A2991 RMK A01 T01240038  RH  056%=      5-min Rain = 0
KWA1 140414Z 27009KT 13/04 A2991 RMK A01 T01250039  RH  056%=      5-min Rain = 0
KWA1 140415Z 26009KT 13/04 A2991 RMK A01 T01250038  RH  055%=      5-min Rain = 0
KWA1 140416Z 26009KT 13/04 A2991 RMK A01 T01250038  RH  055%=      5-min Rain = 0
KWA1 140417Z 26010KT 13/04 A2991 RMK A01 T01260039  RH  055%=      5-min Rain = 0
KWA1 140418Z 25009KT 13/04 A2991 RMK A01 T01260039  RH  056%=      5-min Rain = 0
KWA1 140419Z 25010KT 12/04 A2991 RMK A01 T01240040  RH  056%=      5-min Rain = 0
KWA1 140420Z 25009KT 12/04 A2991 RMK A01 T01210039  RH  057%=      5-min Rain = 0
KWA1 140421Z 25009KT 12/04 A2991 RMK A01 T01190039  RH  058%=      5-min Rain = 0
KWA1 140422Z 25009KT 12/04 A2991 RMK A01 T01180039  RH  058%=      5-min Rain = 0
KWA1 140423Z 25009KT 12/04 A2991 RMK A01 T01180039  RH  059%=      5-min Rain = 0
KWA1 140424Z 25008KT 12/04 A2991 RMK A01 T01150039  RH  059%=      5-min Rain = 0
KWA1 140425Z 25009KT 11/04 A2991 RMK A01 T01130039  RH  060%=      5-min Rain = 0
KWA1 140426Z 25009KT 11/04 A2991 RMK A01 T01110038  RH  061%=      5-min Rain = 0
KWA1 140427Z 25009KT 11/04 A2991 RMK A01 T01120039  RH  061%=      5-min Rain = 0
KWA1 140428Z 25009KT 11/04 A2991 RMK A01 T01120039  RH  061%=      5-min Rain = 0
KWA1 140429Z 25008KT 11/04 A2991 RMK A01 T01120039  RH  061%=      5-min Rain = 0
KWA1 140430Z 25008KT 11/04 A2991 RMK A01 T01120039  RH  061%=      5-min Rain = 0
KWA1 140431Z 25008KT 11/04 A2991 RMK A01 T01110039  RH  061%=      5-min Rain = 0
KWA1 140432Z 25008KT 11/04 A2991 RMK A01 T01100039  RH  061%=      5-min Rain = 0
KWA1 140433Z 25008KT 11/04 A2991 RMK A01 T01090039  RH  062%=      5-min Rain = 0
KWA1 140434Z 25008KT 11/04 A2991 RMK A01 T01080039  RH  063%=      5-min Rain = 0
KWA1 140435Z 25009KT 11/04 A2991 RMK A01 T01080039  RH  063%=      5-min Rain = 0
KWA1 140436Z 25009KT 11/04 A2991 RMK A01 T01070039  RH  063%=      5-min Rain = 0
KWA1 140437Z 25009KT 11/04 A2991 RMK A01 T01070040  RH  063%=      5-min Rain = 0
KWA1 140438Z 25009KT 11/04 A2992 RMK A01 T01060040  RH  063%=      5-min Rain = 0
KWA1 140439Z 25009KT 11/04 A2992 RMK A01 T01060039  RH  063%=      5-min Rain = 0
KWA1 140440Z 25009KT 11/04 A2992 RMK A01 T01060040  RH  064%=      5-min Rain = 0
KWA1 140441Z 25009KT 11/04 A2992 RMK A01 T01060040  RH  064%=      5-min Rain = 0
KWA1 140442Z 25009KT 11/04 A2991 RMK A01 T01050039  RH  064%=      5-min Rain = 0
KWA1 140443Z 25009KT 10/04 A2991 RMK A01 T01040039  RH  064%=      5-min Rain = 0
KWA1 140444Z 25009KT 10/04 A2991 RMK A01 T01040040  RH  064%=      5-min Rain = 0
KWA1 140445Z 25009KT 10/04 A2991 RMK A01 T01040039  RH  064%=      5-min Rain = 0
KWA1 140446Z 25009KT 10/04 A2991 RMK A01 T01040040  RH  064%=      5-min Rain = 0
KWA1 140447Z 25009KT 11/04 A2991 RMK A01 T01050040  RH  064%=      5-min Rain = 0
KWA1 140448Z 25009KT 11/04 A2991 RMK A01 T01050040  RH  064%=      5-min Rain = 0
KWA1 140449Z 25009KT 11/04 A2991 RMK A01 T01050040  RH  064%=      5-min Rain = 0
KWA1 140450Z 25009KT 10/04 A2991 RMK A01 T01040041  RH  065%=      5-min Rain = 0
KWA1 140451Z 25010KT 10/04 A2991 RMK A01 T01030041  RH  065%=      5-min Rain = 0
KWA1 140452Z 25010KT 10/04 A2991 RMK A01 T01030041  RH  065%=      5-min Rain = 0
KWA1 140453Z 26010KT 10/04 A2991 RMK A01 T01030041  RH  065%=      5-min Rain = 0
KWA1 140454Z 25010KT 11/04 A2991 RMK A01 T01060042  RH  065%=      5-min Rain = 0
KWA1 140455Z 25010KT 11/04 A2991 RMK A01 T01080043  RH  064%=      5-min Rain = 0
KWA1 140456Z 25010KT 11/04 A2991 RMK A01 T01090042  RH  063%=      5-min Rain = 0
KWA1 140457Z 25009KT 11/04 A2991 RMK A01 T01090042  RH  063%=      5-min Rain = 0
KWA1 140458Z 25008KT 11/04 A2991 RMK A01 T01090043  RH  064%=      5-min Rain = 0
KWA1 140459Z 25009KT 11/04 A2991 RMK A01 T01080043  RH  064%=      5-min Rain = 0
KWA1 140500Z 25010KT 11/04 A2991 RMK A01 T01050042  RH  065%=      5-min Rain = 0
KWA1 140501Z 25010KT 10/04 A2991 RMK A01 T01040042  RH  065%=      5-min Rain = 0
KWA1 140502Z 25010KT 10/04 A2991 RMK A01 T01040043  RH  066%=      5-min Rain = 0
KWA1 140503Z 25010KT 10/04 A2991 RMK A01 T01040043  RH  066%=      5-min Rain = 0
KWA1 140504Z 25010KT 10/04 A2991 RMK A01 T01040042  RH  066%=      5-min Rain = 0
KWA1 140505Z 25010KT 10/04 A2991 RMK A01 T01040042  RH  065%=      5-min Rain = 0
KWA1 140506Z 25009KT 10/04 A2991 RMK A01 T01040042  RH  065%=      5-min Rain = 0
KWA1 140507Z 26008KT 11/04 A2991 RMK A01 T01050042  RH  065%=      5-min Rain = 0
KWA1 140508Z 26009KT 11/04 A2991 RMK A01 T01050042  RH  065%=      5-min Rain = 0
KWA1 140509Z 26009KT 11/04 A2991 RMK A01 T01050041  RH  065%=      5-min Rain = 0
KWA1 140510Z 26009KT 10/04 A2991 RMK A01 T01040041  RH  065%=      5-min Rain = 0
KWA1 140511Z 26009KT 10/04 A2991 RMK A01 T01020041  RH  066%=      5-min Rain = 0
KWA1 140512Z 26010KT 10/04 A2991 RMK A01 T01010041  RH  066%=      5-min Rain = 0
KWA1 140513Z 26010KT 10/04 A2991 RMK A01 T01000041  RH  067%=      5-min Rain = 0
KWA1 140514Z 26010KT 10/04 A2991 RMK A01 T00990040  RH  067%=      5-min Rain = 0
KWA1 140515Z 26010KT 10/04 A2991 RMK A01 T00970040  RH  068%=      5-min Rain = 0
KWA1 140516Z 26010KT 10/04 A2991 RMK A01 T00960040  RH  068%=      5-min Rain = 0
KWA1 140517Z 26010KT 10/04 A2991 RMK A01 T00960040  RH  068%=      5-min Rain = 0
KWA1 140518Z 26009KT 10/04 A2991 RMK A01 T00960040  RH  068%=      5-min Rain = 0
KWA1 140519Z 26009KT 10/04 A2991 RMK A01 T00960040  RH  068%=      5-min Rain = 0
KWA1 140520Z 26009KT 10/04 A2991 RMK A01 T00970040  RH  068%=      5-min Rain = 0
KWA1 140521Z 26010KT 10/04 A2991 RMK A01 T00960039  RH  067%=      5-min Rain = 0
KWA1 140522Z 26009KT 10/04 A2991 RMK A01 T00970039  RH  067%=      5-min Rain = 0
KWA1 140523Z 26009KT 10/04 A2991 RMK A01 T00980039  RH  067%=      5-min Rain = 0
KWA1 140524Z 25009KT 10/04 A2991 RMK A01 T00970039  RH  067%=      5-min Rain = 0
KWA1 140525Z 25010KT 10/04 A2991 RMK A01 T00980039  RH  067%=      5-min Rain = 0
KWA1 140526Z 25010KT 10/04 A2991 RMK A01 T00980039  RH  067%=      5-min Rain = 0
KWA1 140527Z 25009KT 10/04 A2991 RMK A01 T00970039  RH  067%=      5-min Rain = 0
KWA1 140528Z 25009KT 10/04 A2991 RMK A01 T00970039  RH  067%=      5-min Rain = 0
KWA1 140529Z 25009KT 10/04 A2991 RMK A01 T00970038  RH  067%=      5-min Rain = 0
KWA1 140530Z 25009KT 10/04 A2991 RMK A01 T00970039  RH  067%=      5-min Rain = 0
KWA1 140531Z 25008KT 10/04 A2991 RMK A01 T00970039  RH  067%=      5-min Rain = 0
KWA1 140532Z 25008KT 10/04 A2991 RMK A01 T00970038  RH  067%=      5-min Rain = 0
KWA1 140533Z 25009KT 10/04 A2991 RMK A01 T00970038  RH  067%=      5-min Rain = 0
KWA1 140534Z 25009KT 10/04 A2991 RMK A01 T00960038  RH  067%=      5-min Rain = 0
KWA1 140535Z 25009KT 10/04 A2991 RMK A01 T00970038  RH  067%=      5-min Rain = 0
KWA1 140536Z 25009KT 10/04 A2991 RMK A01 T00960038  RH  067%=      5-min Rain = 0
KWA1 140537Z 25009KT 10/04 A2991 RMK A01 T00950038  RH  067%=      5-min Rain = 0
KWA1 140538Z 25009KT 10/04 A2991 RMK A01 T00950038  RH  067%=      5-min Rain = 0
KWA1 140539Z 25010KT 09/04 A2991 RMK A01 T00940037  RH  068%=      5-min Rain = 0
KWA1 140540Z 26010KT 09/04 A2991 RMK A01 T00940038  RH  068%=      5-min Rain = 0
KWA1 140541Z 25010KT 09/04 A2991 RMK A01 T00940038  RH  068%=      5-min Rain = 0
KWA1 140542Z 25010KT 09/04 A2991 RMK A01 T00940037  RH  068%=      5-min Rain = 0
KWA1 140543Z 25010KT 09/04 A2991 RMK A01 T00940037  RH  068%=      5-min Rain = 0
KWA1 140544Z 25010KT 09/04 A2991 RMK A01 T00940037  RH  068%=      5-min Rain = 0
KWA1 140545Z 25009KT 09/04 A2991 RMK A01 T00940037  RH  068%=      5-min Rain = 0
KWA1 140546Z 26009KT 09/04 A2991 RMK A01 T00940037  RH  068%=      5-min Rain = 0
KWA1 140547Z 26011KT 09/04 A2991 RMK A01 T00940037  RH  068%=      5-min Rain = 0
KWA1 140548Z 26012KT 09/04 A2991 RMK A01 T00930037  RH  068%=      5-min Rain = 0
KWA1 140549Z 26013KT 09/04 A2991 RMK A01 T00930037  RH  068%=      5-min Rain = 0
KWA1 140550Z 26011KT 09/04 A2991 RMK A01 T00940037  RH  068%=      5-min Rain = 0
KWA1 140551Z 26011KT 10/04 A2991 RMK A01 T00960037  RH  067%=      5-min Rain = 0
KWA1 140552Z 26011KT 10/04 A2991 RMK A01 T00980038  RH  066%=      5-min Rain = 0
KWA1 140553Z 26010KT 10/04 A2991 RMK A01 T00980038  RH  066%=      5-min Rain = 0
KWA1 140554Z 26011KT 10/04 A2991 RMK A01 T00970038  RH  067%=      5-min Rain = 0
KWA1 140555Z 26011KT 10/04 A2991 RMK A01 T00950038  RH  067%=      5-min Rain = 0
KWA1 140556Z 26010KT 09/04 A2992 RMK A01 T00940038  RH  068%=      5-min Rain = 0
KWA1 140557Z 26011KT 09/04 A2992 RMK A01 T00930038  RH  068%=      5-min Rain = 0
KWA1 140558Z 26011KT 09/04 A2991 RMK A01 T00920038  RH  069%=      5-min Rain = 0
KWA1 140559Z 26011KT 09/04 A2991 RMK A01 T00910038  RH  069%=      5-min Rain = 0

Page generated in 0.0635 seconds.